LiveATC.Net - Listen to live air traffic control over the Internet!

Find LiveATC Audio Streams


Airport/ARTCC Code

Frequency Search
(e.g., 124.400, 128.75)
Site-wide search
 


Browse LiveATC Feeds
Top 50 LiveATC Feeds
Bad Weather Areas

LiveATC FAQ
Offer a LiveATC Feed
Contact LiveATC.net
Press Inquiries

LiveATC on iPhone
LiveATC on Android

Windows Phone
Windows 8/10

LiveATC Mobile
(Mobile browser)

ATC Audio Archives
Interesting Recordings

LiveATC Forums

Home Page
About LiveATC.net
Make a Donation
Terms of Use
Privacy Policy

Canadian Air Freqs

AIRMETs/SIGMETs

FAA Airport Status
Nat'l Airspace Status
Arrival Demand Charts


Server Software By:
Icecast.org
Liquidsoap

Select an area of interest:
U.S. Feeds: Class B Airports | Class C Airports | Class D/Other Airports | ARTCC (Centers)
International Feeds: Canada | Europe | Oceania | Asia | South America | North/Central America | Africa
Misc Feeds: HF Feeds
Search by ICAO/IATA airport code:   (e.g., kbos, kjfk, lax, eham, etc.)


Currently Available Live Feeds: 2316
Status Updated: Tue Nov 20 2018 14:31:01 UTC


NOTICE

Unauthorized use prohibited. See LiveATC.net Terms of Service

U.S. Class C Airport Feeds

 

KABE Gnd/Twr/App (Archives)
Allentown, Pennsylvania, United States

Feed Status: UP
Listen in your browser - HTML5 player(in browser, HTML5)
Listen right in your browser(in browser, requires Flash)
Click here to listen with your own player(launches your MP3 player)

KABE 201351Z 31006KT 10SM OVC014 06/02 A2990 RMK AO2 SLP127 T00610022

KABE Airport Info (Airnav.com)

KABE Flight Activity (Flightaware)

Listeners: 1 out of 1388 total

Allentown Approach/Departure: 119.650
Allentown Approach/Departure: 124.450
Allentown Ground: 121.900
Allentown Tower: 120.500

KABQ Twr/App/ZAB (Archives)
Albuquerque, New Mexico, United States

Feed Status: UP
Listen in your browser - HTML5 player(in browser, HTML5)
Listen right in your browser(in browser, requires Flash)
Click here to listen with your own player(launches your MP3 player)

KABQ 201352Z 01007KT 10SM FEW100 SCT180 BKN250 M01/M08 A3030 RMK AO2 SLP265 T10111083

KABQ Airport Info (Airnav.com)

KABQ Flight Activity (Flightaware)

Listeners: 0 out of 1388 total

Albuquerque Approach (South): 126.300
Albuquerque Approach/Departure (N of V12): 127.400
Albuquerque Approach/Departure (S of V12): 123.900
Albuquerque Clearance Delivery: 119.200
Albuquerque Tower: 120.300
Albuquerque Tower (South): 123.775
Albuquerque UNICOM: 122.950
ZAB Albuquerque Center Sector 16 SAN-L: 132.800
ZAB Albuquerque Center Sector 17 LAVA-L: 124.325
ZAB Albuquerque Center Sector 94 CNX-LH: 133.650

KACY App/Dep #1 (Archives)
Atlantic City, New Jersey, United States

Feed Status: UP
Listen in your browser - HTML5 player(in browser, HTML5)
Listen right in your browser(in browser, requires Flash)
Click here to listen with your own player(launches your MP3 player)

KACY 201354Z 30008KT 2SM BR OVC005 09/09 A2988 RMK AO2 SFC VIS 3 RAE04 SLP118 P0000 T00940094

KACY Airport Info (Airnav.com)

KACY Flight Activity (Flightaware)

Listeners: 0 out of 1388 total

Atlantic City Approach/Departure: 124.600
Atlantic City Approach/Departure: 134.250
Atlantic City Approach/Departure: 385.500
Atlantic City Approach/Departure: 327.125

KACY App/Dep #2 (Archives)
Atlantic City, New Jersey, United States

Feed Status: UP
Listen in your browser - HTML5 player(in browser, HTML5)
Listen right in your browser(in browser, requires Flash)
Click here to listen with your own player(launches your MP3 player)

KACY 201354Z 30008KT 2SM BR OVC005 09/09 A2988 RMK AO2 SFC VIS 3 RAE04 SLP118 P0000 T00940094

KACY Airport Info (Airnav.com)

KACY Flight Activity (Flightaware)

Listeners: 0 out of 1388 total

Atlantic City Approach/Departure: 134.250
Atlantic City Approach/Departure: 124.600
Atlantic City Approach/Departure: 385.500
Atlantic City Approach/Departure: 327.125

KACY ATIS (Archives)
Atlantic City, New Jersey, United States

Feed Status: UP
Listen in your browser - HTML5 player(in browser, HTML5)
Listen right in your browser(in browser, requires Flash)
Click here to listen with your own player(launches your MP3 player)

KACY 201354Z 30008KT 2SM BR OVC005 09/09 A2988 RMK AO2 SFC VIS 3 RAE04 SLP118 P0000 T00940094

KACY Airport Info (Airnav.com)

KACY Flight Activity (Flightaware)

Listeners: 0 out of 1388 total

Atlantic City ATIS: 125.725

KACY Clearance Delivery (Archives)
Atlantic City, New Jersey, United States

Feed Status: UP
Listen in your browser - HTML5 player(in browser, HTML5)
Listen right in your browser(in browser, requires Flash)
Click here to listen with your own player(launches your MP3 player)

KACY 201354Z 30008KT 2SM BR OVC005 09/09 A2988 RMK AO2 SFC VIS 3 RAE04 SLP118 P0000 T00940094

KACY Airport Info (Airnav.com)

KACY Flight Activity (Flightaware)

Listeners: 0 out of 1388 total

Atlantic City Clearance: 127.850

KACY GIANT KILLER (Archives)
Atlantic City, New Jersey, United States

Feed Status: UP
Listen in your browser - HTML5 player(in browser, HTML5)
Listen right in your browser(in browser, requires Flash)
Click here to listen with your own player(launches your MP3 player)

KACY 201354Z 30008KT 2SM BR OVC005 09/09 A2988 RMK AO2 SFC VIS 3 RAE04 SLP118 P0000 T00940094

KACY Airport Info (Airnav.com)

KACY Flight Activity (Flightaware)

Listeners: 0 out of 1388 total

GIANT KILLER Common Area (Air-Air): 337.225
GIANT KILLER W-105/W-106 Check In/Out: 135.225
GIANT KILLER W-105/W-106 Check In/Out: 338.100
GIANT KILLER W-105/W-106 Common Area: 305.250
GIANT KILLER W-107 Check In/Out: 135.725
GIANT KILLER W-107 Check In/Out: 255.000
GIANT KILLER W-107 Common Area: 339.725
GIANT KILLER W-386 Common Area (A through F): 312.200
GIANT KILLER W-386 Common Area (G through J): 350.050
GIANT KILLER W-386 Common Area (K) and W-387 Common Area (All): 346.600
GIANT KILLER W-386/W-387 Check In/Out: 118.125
GIANT KILLER W-386/W-387 Check In/Out (Primary): 238.100
GIANT KILLER W-386/W-387 Check In/Out (Secondary): 249.800

KACY Ground #1 (Archives)
Atlantic City, New Jersey, United States

Feed Status: UP
Listen in your browser - HTML5 player(in browser, HTML5)
Listen right in your browser(in browser, requires Flash)
Click here to listen with your own player(launches your MP3 player)

KACY 201354Z 30008KT 2SM BR OVC005 09/09 A2988 RMK AO2 SFC VIS 3 RAE04 SLP118 P0000 T00940094

KACY Airport Info (Airnav.com)

KACY Flight Activity (Flightaware)

Listeners: 0 out of 1388 total

Atlantic City Ground: 121.900

KACY Ground #2 (Archives)
Atlantic City, New Jersey, United States

Feed Status: UP
Listen in your browser - HTML5 player(in browser, HTML5)
Listen right in your browser(in browser, requires Flash)
Click here to listen with your own player(launches your MP3 player)

KACY 201354Z 30008KT 2SM BR OVC005 09/09 A2988 RMK AO2 SFC VIS 3 RAE04 SLP118 P0000 T00940094

KACY Airport Info (Airnav.com)

KACY Flight Activity (Flightaware)

Listeners: 0 out of 1388 total

Atlantic City Ground: 121.900

KACY Guard/Emergency (Archives)
Atlantic City, New Jersey, United States

Feed Status: UP
Listen in your browser - HTML5 player(in browser, HTML5)
Listen right in your browser(in browser, requires Flash)
Click here to listen with your own player(launches your MP3 player)

KACY 201354Z 30008KT 2SM BR OVC005 09/09 A2988 RMK AO2 SFC VIS 3 RAE04 SLP118 P0000 T00940094

KACY Airport Info (Airnav.com)

KACY Flight Activity (Flightaware)

Listeners: 0 out of 1388 total

Emergency/Guard: 121.500

KACY Tower #1 (Archives)
Atlantic City, New Jersey, United States

Feed Status: UP
Listen in your browser - HTML5 player(in browser, HTML5)
Listen right in your browser(in browser, requires Flash)
Click here to listen with your own player(launches your MP3 player)

KACY 201354Z 30008KT 2SM BR OVC005 09/09 A2988 RMK AO2 SFC VIS 3 RAE04 SLP118 P0000 T00940094

KACY Airport Info (Airnav.com)

KACY Flight Activity (Flightaware)

Listeners: 0 out of 1388 total

Atlantic City Tower: 120.300

KACY Tower #2 (Archives)
Atlantic City, New Jersey, United States

Feed Status: UP
Listen in your browser - HTML5 player(in browser, HTML5)
Listen right in your browser(in browser, requires Flash)
Click here to listen with your own player(launches your MP3 player)

KACY 201354Z 30008KT 2SM BR OVC005 09/09 A2988 RMK AO2 SFC VIS 3 RAE04 SLP118 P0000 T00940094

KACY Airport Info (Airnav.com)

KACY Flight Activity (Flightaware)

Listeners: 0 out of 1388 total

Atlantic City Tower: 120.300

KACY Tower (VHF/UHF) (Archives)
Atlantic City, New Jersey, United States

Feed Status: UP
Listen in your browser - HTML5 player(in browser, HTML5)
Listen right in your browser(in browser, requires Flash)
Click here to listen with your own player(launches your MP3 player)

KACY 201354Z 30008KT 2SM BR OVC005 09/09 A2988 RMK AO2 SFC VIS 3 RAE04 SLP118 P0000 T00940094

KACY Airport Info (Airnav.com)

KACY Flight Activity (Flightaware)

Listeners: 0 out of 1388 total

Atlantic City Tower: 239.000
Atlantic City Tower: 120.300

KALB Approach/Departure (Archives)
Albany, New York, United States

Feed Status: UP
Listen in your browser - HTML5 player(in browser, HTML5)
Listen right in your browser(in browser, requires Flash)
Click here to listen with your own player(launches your MP3 player)

KALB 201351Z 33004KT 1 1/4SM -SN BR OVC003 01/M01 A2992 RMK AO2 SLP134 P0001 T00111006

KALB Airport Info (Airnav.com)

KALB Flight Activity (Flightaware)

Listeners: 0 out of 1388 total

Albany Approach/Departure: 132.825
Albany Approach/Departure: 118.050

KALB ATIS (Archives)
Albany, New York, United States

Feed Status: UP
Listen in your browser - HTML5 player(in browser, HTML5)
Listen right in your browser(in browser, requires Flash)
Click here to listen with your own player(launches your MP3 player)

KALB 201351Z 33004KT 1 1/4SM -SN BR OVC003 01/M01 A2992 RMK AO2 SLP134 P0001 T00111006

KALB Airport Info (Airnav.com)

KALB Flight Activity (Flightaware)

Listeners: 0 out of 1388 total

Albany ATIS: 120.450

KALB Ground (Archives)
Albany, New York, United States

Feed Status: UP
Listen in your browser - HTML5 player(in browser, HTML5)
Listen right in your browser(in browser, requires Flash)
Click here to listen with your own player(launches your MP3 player)

KALB 201351Z 33004KT 1 1/4SM -SN BR OVC003 01/M01 A2992 RMK AO2 SLP134 P0001 T00111006

KALB Airport Info (Airnav.com)

KALB Flight Activity (Flightaware)

Listeners: 0 out of 1388 total

Albany Ground: 121.700

KALB Ground/Tower (Archives)
Albany, New York, United States

Feed Status: UP
Listen in your browser - HTML5 player(in browser, HTML5)
Listen right in your browser(in browser, requires Flash)
Click here to listen with your own player(launches your MP3 player)

KALB 201351Z 33004KT 1 1/4SM -SN BR OVC003 01/M01 A2992 RMK AO2 SLP134 P0001 T00111006

KALB Airport Info (Airnav.com)

KALB Flight Activity (Flightaware)

Listeners: 2 out of 1388 total

Albany Ground: 121.700
Albany Tower: 119.500

KALB Tower (Archives)
Albany, New York, United States

Feed Status: UP
Listen in your browser - HTML5 player(in browser, HTML5)
Listen right in your browser(in browser, requires Flash)
Click here to listen with your own player(launches your MP3 player)

KALB 201351Z 33004KT 1 1/4SM -SN BR OVC003 01/M01 A2992 RMK AO2 SLP134 P0001 T00111006

KALB Airport Info (Airnav.com)

KALB Flight Activity (Flightaware)

Listeners: 0 out of 1388 total

Albany Tower: 119.500

KAUG Portland App/ZBW (Archives)
Augusta, Maine, United States

Feed Status: UP
Listen in your browser - HTML5 player(in browser, HTML5)
Listen right in your browser(in browser, requires Flash)
Click here to listen with your own player(launches your MP3 player)

KAUG 201353Z AUTO 01004KT 2 1/2SM -SN BR OVC035 M02/M03 A2997 RMK AO2 SLP154 P0000 T10171033

KAUG Airport Info (Airnav.com)

KAUG Flight Activity (Flightaware)

Listeners: 0 out of 1388 total

Boston Center (Sector 02 Augusta High): 134.950
Portland Approach: 128.350

Sponsored by LiveATC.net and Maine Instrument Flight

KAUS App/Dep (Archives)
Austin, Texas, United States

Feed Status: UP
Listen in your browser - HTML5 player(in browser, HTML5)
Listen right in your browser(in browser, requires Flash)
Click here to listen with your own player(launches your MP3 player)

KAUS 201353Z 34005KT 10SM FEW150 07/03 A3034 RMK AO2 SLP278 T00670033

KAUS Airport Info (Airnav.com)

KAUS Flight Activity (Flightaware)

Listeners: 0 out of 1388 total

Austin Approach (Final): 125.325

KAUS App/Dep (East) (Archives)
Austin, Texas, United States

Feed Status: UP
Listen in your browser - HTML5 player(in browser, HTML5)
Listen right in your browser(in browser, requires Flash)
Click here to listen with your own player(launches your MP3 player)

KAUS 201353Z 34005KT 10SM FEW150 07/03 A3034 RMK AO2 SLP278 T00670033

KAUS Airport Info (Airnav.com)

KAUS Flight Activity (Flightaware)

Listeners: 0 out of 1388 total

Austin Approach (East): 127.225

KAUS App/Dep (South) (Archives)
Austin, Texas, United States

Feed Status: UP
Listen in your browser - HTML5 player(in browser, HTML5)
Listen right in your browser(in browser, requires Flash)
Click here to listen with your own player(launches your MP3 player)

KAUS 201353Z 34005KT 10SM FEW150 07/03 A3034 RMK AO2 SLP278 T00670033

KAUS Airport Info (Airnav.com)

KAUS Flight Activity (Flightaware)

Listeners: 0 out of 1388 total

Austin Approach: 120.875

KAUS App/Dep (West) (Archives)
Austin, Texas, United States

Feed Status: UP
Listen in your browser - HTML5 player(in browser, HTML5)
Listen right in your browser(in browser, requires Flash)
Click here to listen with your own player(launches your MP3 player)

KAUS 201353Z 34005KT 10SM FEW150 07/03 A3034 RMK AO2 SLP278 T00670033

KAUS Airport Info (Airnav.com)

KAUS Flight Activity (Flightaware)

Listeners: 0 out of 1388 total

Austin Approach (West): 119.000

KAUS Del/Gnd/Twr/App (Archives)
Austin, Texas, United States

Feed Status: UP
Listen in your browser - HTML5 player(in browser, HTML5)
Listen right in your browser(in browser, requires Flash)
Click here to listen with your own player(launches your MP3 player)

KAUS 201353Z 34005KT 10SM FEW150 07/03 A3034 RMK AO2 SLP278 T00670033

KAUS Airport Info (Airnav.com)

KAUS Flight Activity (Flightaware)

Listeners: 0 out of 1388 total

Austin Approach (Final): 125.325
Austin Approach/Departure (176-354): 119.000
Austin Approach/Departure (176-354) UHF: 370.850
Austin Approach/Departure (355-175): 127.225
Austin Approach/Departure (355-175) UHF: 317.650
Austin Clearance Delivery: 125.500
Austin Clearance Delivery (UHF): 263.000
Austin Ground: 121.700
Austin Ground: 121.900
Austin Ground (UHF): 348.600
Austin Tower: 121.000
Austin Tower (Military UHF): 281.500

KAUS Tower (Archives)
Austin, Texas, United States

Feed Status: UP
Listen in your browser - HTML5 player(in browser, HTML5)
Listen right in your browser(in browser, requires Flash)
Click here to listen with your own player(launches your MP3 player)

KAUS 201353Z 34005KT 10SM FEW150 07/03 A3034 RMK AO2 SLP278 T00670033

KAUS Airport Info (Airnav.com)

KAUS Flight Activity (Flightaware)

Listeners: 0 out of 1388 total

Austin Tower: 121.000

KAVL Gnd/Twr/App (Archives)
Asheville, North Carolina, United States

Feed Status: UP
Listen in your browser - HTML5 player(in browser, HTML5)
Listen right in your browser(in browser, requires Flash)
Click here to listen with your own player(launches your MP3 player)

KAVL 201354Z 35009G16KT 10SM OVC026 07/03 A3007 RMK AO2 SLP176 T00720028 $

KAVL Airport Info (Airnav.com)

KAVL Flight Activity (Flightaware)

Listeners: 3 out of 1388 total

Asheville Approach/Departure: 124.650
Asheville Approach/Departure: 125.800
Asheville Ground: 121.900
Asheville Tower/CTAF: 121.100
Asheville UNICOM: 122.950
Emergency (Guard): 121.500
Landmark Aviation (FBO): 130.275
RDU Radio: 122.100

KBTL/KAZO Gnd/Twr/App (Archives)
Kalamazoo, Michigan, United States

Feed Status: UP
Listen in your browser - HTML5 player(in browser, HTML5)
Listen right in your browser(in browser, requires Flash)
Click here to listen with your own player(launches your MP3 player)

KBTL Airport Info (Airnav.com)

KBTL Flight Activity (Flightaware)

Listeners: 2 out of 1388 total

Battle Creek Ground: 121.700
Battle Creek Tower: 126.825
Kalamazoo Approach/Departure: 119.200
Kalamazoo Ground: 121.900
Kalamazoo Tower: 118.300

KBDL Approach/ANG (Archives)
Windsor Locks, Connecticut, United States

Feed Status: UP
Listen in your browser - HTML5 player(in browser, HTML5)
Listen right in your browser(in browser, requires Flash)
Click here to listen with your own player(launches your MP3 player)

KBDL 201351Z 36006KT 3SM -RA BR BKN005 OVC022 02/01 A2989 RMK AO2 SFC VIS 5 SLP122 P0003 T00170011

KBDL Airport Info (Airnav.com)

KBDL Flight Activity (Flightaware)

Listeners: 5 out of 1388 total

Bradley Approach (South): 127.800
Bradley Approach (South): 269.325
Bradley Approach (Spare): 127.225
Bradley Approach/Departure (North): 125.350
Bradley Approach/Departure (North): 281.500
Bradley Approach/Departure (West): 123.950
Bradley Approach/Departure (West): 290.550
Bradley Departure (South): 327.100
Bradley Departure (South): 323.200
CT ANG FURY Ops: 41.900
CT ANG FURY Ops: 139.200
CT ANG FURY Ops: 139.400
CT ANG FURY Ops: 243.900
CT ANG FURY Ops: 265.600
CT ANG SHARK Ops: 138.550
CT ANG SHARK Ops: 349.700
Emergency/Guard: 121.500
Emergency/Guard: 243.000

Sponsored by LiveATC.net and New England Air Museum

KBDL ATIS (Archives)
Windsor Locks, Connecticut, United States

Feed Status: UP
Listen in your browser - HTML5 player(in browser, HTML5)
Listen right in your browser(in browser, requires Flash)
Click here to listen with your own player(launches your MP3 player)

KBDL 201351Z 36006KT 3SM -RA BR BKN005 OVC022 02/01 A2989 RMK AO2 SFC VIS 5 SLP122 P0003 T00170011

KBDL Airport Info (Airnav.com)

KBDL Flight Activity (Flightaware)

Listeners: 0 out of 1388 total

Bradley ATIS: 118.150

KBDL Del/Gnd (Archives)
Windsor Locks, Connecticut, United States

Feed Status: UP
Listen in your browser - HTML5 player(in browser, HTML5)
Listen right in your browser(in browser, requires Flash)
Click here to listen with your own player(launches your MP3 player)

KBDL 201351Z 36006KT 3SM -RA BR BKN005 OVC022 02/01 A2989 RMK AO2 SFC VIS 5 SLP122 P0003 T00170011

KBDL Airport Info (Airnav.com)

KBDL Flight Activity (Flightaware)

Listeners: 0 out of 1388 total

Bradley Clearance Delivery: 121.750
Bradley Ground: 121.900
Emergency/Guard: 121.500

Sponsored by LiveATC.net and New England Air Museum

KBDL Tower (Archives)
Windsor Locks, Connecticut, United States

Feed Status: UP
Listen in your browser - HTML5 player(in browser, HTML5)
Listen right in your browser(in browser, requires Flash)
Click here to listen with your own player(launches your MP3 player)

KBDL 201351Z 36006KT 3SM -RA BR BKN005 OVC022 02/01 A2989 RMK AO2 SFC VIS 5 SLP122 P0003 T00170011

KBDL Airport Info (Airnav.com)

KBDL Flight Activity (Flightaware)

Listeners: 1 out of 1388 total

Bradley Tower: 120.300

Sponsored by LiveATC.net and New England Air Museum

KBFM ATIS (Archives)
Mobile, Alabama, United States

Feed Status: UP
Listen in your browser - HTML5 player(in browser, HTML5)
Listen right in your browser(in browser, requires Flash)
Click here to listen with your own player(launches your MP3 player)

KBFM 201353Z 35008KT 6SM BR BKN007 BKN044 16/14 A3020 RMK AO2 SLP225 T01560139

KBFM Airport Info (Airnav.com)

KBFM Flight Activity (Flightaware)

Listeners: 0 out of 1388 total

Mobile Downtown ATIS: 135.575

KBGR App/ZBW (Archives)
Bangor, Maine, United States

Feed Status: UP
Listen in your browser - HTML5 player(in browser, HTML5)
Listen right in your browser(in browser, requires Flash)
Click here to listen with your own player(launches your MP3 player)

KBGR 201353Z 02006KT 10SM OVC075 M02/M03 A2998 RMK AO2 SLP156 T10171033

KBGR Airport Info (Airnav.com)

KBGR Flight Activity (Flightaware)

Listeners: 2 out of 1388 total

Bangor Approach: 118.925
Bangor Approach: 124.500
ZBW Sector 01 Millinocket High : 128.050
ZBW Sector 15 Surry Low : 124.250

KBGR ATIS (Archives)
Bangor, Maine, United States

Feed Status: UP
Listen in your browser - HTML5 player(in browser, HTML5)
Listen right in your browser(in browser, requires Flash)
Click here to listen with your own player(launches your MP3 player)

KBGR 201353Z 02006KT 10SM OVC075 M02/M03 A2998 RMK AO2 SLP156 T10171033

KBGR Airport Info (Airnav.com)

KBGR Flight Activity (Flightaware)

Listeners: 0 out of 1388 total

Bangor ATIS: 127.750

KBGR Del/Gnd/Twr (Archives)
Bangor, Maine, United States

Feed Status: UP
Listen in your browser - HTML5 player(in browser, HTML5)
Listen right in your browser(in browser, requires Flash)
Click here to listen with your own player(launches your MP3 player)

KBGR 201353Z 02006KT 10SM OVC075 M02/M03 A2998 RMK AO2 SLP156 T10171033

KBGR Airport Info (Airnav.com)

KBGR Flight Activity (Flightaware)

Listeners: 1 out of 1388 total

Bangor Clearance Delivery: 135.900
Bangor Ground: 121.900
Bangor Tower: 120.700

KBHM Gnd/Twr/App (Archives)
Birmingham, Alabama, United States

Feed Status: UP
Listen in your browser - HTML5 player(in browser, HTML5)
Listen right in your browser(in browser, requires Flash)
Click here to listen with your own player(launches your MP3 player)

KBHM 201353Z 33008KT 10SM OVC027 08/05 A3024 RMK AO2 SLP239 T00780050

KBHM Airport Info (Airnav.com)

KBHM Flight Activity (Flightaware)

Listeners: 2 out of 1388 total

Birmingham Approach/Departure: 127.675
Birmingham Approach/Departure: 123.800
Birmingham Ground: 121.700
Birmingham Tower: 118.250
Birmingham Tower: 119.900

KBIL Approach (West) (Archives)
Billings, Montana, United States

Feed Status: UP
Listen in your browser - HTML5 player(in browser, HTML5)
Listen right in your browser(in browser, requires Flash)
Click here to listen with your own player(launches your MP3 player)

KBIL 201353Z 21013KT 10SM CLR M01/M06 A3009 RMK AO2 SLP215 T10061056

KBIL Airport Info (Airnav.com)

KBIL Flight Activity (Flightaware)

Listeners: 0 out of 1388 total

Billing Approach (West): 120.500

KBIL Ground (Archives)
Billings, Montana, United States

Feed Status: UP
Listen in your browser - HTML5 player(in browser, HTML5)
Listen right in your browser(in browser, requires Flash)
Click here to listen with your own player(launches your MP3 player)

KBIL 201353Z 21013KT 10SM CLR M01/M06 A3009 RMK AO2 SLP215 T10061056

KBIL Airport Info (Airnav.com)

KBIL Flight Activity (Flightaware)

Listeners: 0 out of 1388 total

Billings Ground: 121.900

KBIL Tower (Archives)
Billings, Montana, United States

Feed Status: UP
Listen in your browser - HTML5 player(in browser, HTML5)
Listen right in your browser(in browser, requires Flash)
Click here to listen with your own player(launches your MP3 player)

KBIL 201353Z 21013KT 10SM CLR M01/M06 A3009 RMK AO2 SLP215 T10061056

KBIL Airport Info (Airnav.com)

KBIL Flight Activity (Flightaware)

Listeners: 0 out of 1388 total

Billings Tower: 127.200

KBNA App/Dep (Archives)
Nashville, Tennessee, United States

Feed Status: UP
Listen in your browser - HTML5 player(in browser, HTML5)
Listen right in your browser(in browser, requires Flash)
Click here to listen with your own player(launches your MP3 player)

KBNA 201353Z 36006KT 10SM FEW024 OVC032 06/M01 A3024 RMK AO2 SLP241 T00611011

KBNA Airport Info (Airnav.com)

KBNA Flight Activity (Flightaware)

Listeners: 3 out of 1388 total

Nashville App/Dep (East): 118.400
Nashville App/Dep (West): 119.350
Nashville Approach (Final): 124.750

KBNA App/Dep (East) (Archives)
Nashville, Tennessee, United States

Feed Status: UP
Listen in your browser - HTML5 player(in browser, HTML5)
Listen right in your browser(in browser, requires Flash)
Click here to listen with your own player(launches your MP3 player)

KBNA 201353Z 36006KT 10SM FEW024 OVC032 06/M01 A3024 RMK AO2 SLP241 T00611011

KBNA Airport Info (Airnav.com)

KBNA Flight Activity (Flightaware)

Listeners: 0 out of 1388 total

Nashville App/Dep (East): 118.400

KBNA Gnd/Twr (Archives)
Nashville, Tennessee, United States

Feed Status: UP
Listen in your browser - HTML5 player(in browser, HTML5)
Listen right in your browser(in browser, requires Flash)
Click here to listen with your own player(launches your MP3 player)

KBNA 201353Z 36006KT 10SM FEW024 OVC032 06/M01 A3024 RMK AO2 SLP241 T00611011

KBNA Airport Info (Airnav.com)

KBNA Flight Activity (Flightaware)

Listeners: 0 out of 1388 total

Nashville Ground: 121.900
Nashville Tower: 118.600

KBOI Del/Gnd (Archives)
Boise, Idaho, United States

Feed Status: UP
Listen in your browser - HTML5 player(in browser, HTML5)
Listen right in your browser(in browser, requires Flash)
Click here to listen with your own player(launches your MP3 player)

KBOI 201353Z 13005KT 10SM CLR M03/M07 A3024 RMK AO2 SLP260 T10281072

KBOI Airport Info (Airnav.com)

KBOI Flight Activity (Flightaware)

Listeners: 0 out of 1388 total

Boise Clearance Delivery: 125.900
Boise Ground: 121.700

KBOI Twr/App (Archives)
Boise, Idaho, United States

Feed Status: UP
Listen in your browser - HTML5 player(in browser, HTML5)
Listen right in your browser(in browser, requires Flash)
Click here to listen with your own player(launches your MP3 player)

KBOI 201353Z 13005KT 10SM CLR M03/M07 A3024 RMK AO2 SLP260 T10281072

KBOI Airport Info (Airnav.com)

KBOI Flight Activity (Flightaware)

Listeners: 0 out of 1388 total

Boise Approach/Departure (North): 126.900
Boise Approach/Departure (South): 119.600
Boise Tower: 118.100

Sponsored by: Ponderosa Aero Club

KBTL/KAZO Gnd/Twr/App (Archives)
Battle Creek, Michigan, United States

Feed Status: UP
Listen in your browser - HTML5 player(in browser, HTML5)
Listen right in your browser(in browser, requires Flash)
Click here to listen with your own player(launches your MP3 player)

KBTL Airport Info (Airnav.com)

KBTL Flight Activity (Flightaware)

Listeners: 2 out of 1388 total

Battle Creek Ground: 121.700
Battle Creek Tower: 126.825
Kalamazoo Approach/Departure: 119.200
Kalamazoo Ground: 121.900
Kalamazoo Tower: 118.300

KBTR/KHZR/L38 Del/Gnd/Twr/App/CTAF (Archives)
Baton Rouge, Louisiana, United States

Feed Status: UP
Listen in your browser - HTML5 player(in browser, HTML5)
Listen right in your browser(in browser, requires Flash)
Click here to listen with your own player(launches your MP3 player)

KBTR 201353Z 36005KT 10SM BKN010 OVC023 10/09 A3025 RMK AO2 SLP242 T01000089

KBTR Airport Info (Airnav.com)

KBTR Flight Activity (Flightaware)

Listeners: 0 out of 1388 total

Baton Rouge Approach/Departure (East): 126.500
Baton Rouge Approach/Departure (Military): 278.300
Baton Rouge Approach/Departure (West): 120.300
Baton Rouge Clearance Delivery: 119.400
Baton Rouge Ground: 121.900
Baton Rouge Tower (Military): 257.800
Baton Rouge Tower/CTAF: 118.450
Baton Rouge UNICOM: 122.950
Houston Center (App/Dep when Approach closed): 338.250
Houston Center (App/Dep when Approach closed): 126.350
Louisiana Regional L38 CTAF: 123.000
United Airlines: 129.925

Sponsored by:

KBTV App/Dep (Archives)
Burlington, Vermont, United States

Feed Status: UP
Listen in your browser - HTML5 player(in browser, HTML5)
Listen right in your browser(in browser, requires Flash)
Click here to listen with your own player(launches your MP3 player)

KBTV 201428Z 01005KT 1 1/2SM -SN BR OVC005 M02/M03 A2992 RMK AO2 P0000 T10171028

KBTV Airport Info (Airnav.com)

KBTV Flight Activity (Flightaware)

Listeners: 0 out of 1388 total

Burlington Approach/Departure: 278.800
Burlington Approach/Departure: 121.100

KBTV ATIS (Archives)
Burlington, Vermont, United States

Feed Status: UP
Listen in your browser - HTML5 player(in browser, HTML5)
Listen right in your browser(in browser, requires Flash)
Click here to listen with your own player(launches your MP3 player)

KBTV 201428Z 01005KT 1 1/2SM -SN BR OVC005 M02/M03 A2992 RMK AO2 P0000 T10171028

KBTV Airport Info (Airnav.com)

KBTV Flight Activity (Flightaware)

Listeners: 0 out of 1388 total

Burlington ATIS: 123.800

KBTV Del/Gnd/Twr (Archives)
Burlington, Vermont, United States

Feed Status: UP
Listen in your browser - HTML5 player(in browser, HTML5)
Listen right in your browser(in browser, requires Flash)
Click here to listen with your own player(launches your MP3 player)

KBTV 201428Z 01005KT 1 1/2SM -SN BR OVC005 M02/M03 A2992 RMK AO2 P0000 T10171028

KBTV Airport Info (Airnav.com)

KBTV Flight Activity (Flightaware)

Listeners: 0 out of 1388 total

Burlington Clearance Delivery: 119.150
Burlington Ground: 126.300
Burlington Ground: 348.600
Burlington Tower: 118.300
Burlington Tower: 257.800

KBTV Del/Gnd/Twr/App #1 (Archives)
Burlington, Vermont, United States

Feed Status: UP
Listen in your browser - HTML5 player(in browser, HTML5)
Listen right in your browser(in browser, requires Flash)
Click here to listen with your own player(launches your MP3 player)

KBTV 201428Z 01005KT 1 1/2SM -SN BR OVC005 M02/M03 A2992 RMK AO2 P0000 T10171028

KBTV Airport Info (Airnav.com)

KBTV Flight Activity (Flightaware)

Listeners: 0 out of 1388 total

Burlington Clearance Delivery: 119.150
Burlington Ground: 126.300
Burlington Tower: 118.300

KBTV Del/Gnd/Twr/App #2 (Archives)
Burlington, Vermont, United States

Feed Status: UP
Listen in your browser - HTML5 player(in browser, HTML5)
Listen right in your browser(in browser, requires Flash)
Click here to listen with your own player(launches your MP3 player)

KBTV 201428Z 01005KT 1 1/2SM -SN BR OVC005 M02/M03 A2992 RMK AO2 P0000 T10171028

KBTV Airport Info (Airnav.com)

KBTV Flight Activity (Flightaware)

Listeners: 2 out of 1388 total

Burlington Approach/Departure: 278.800
Burlington Approach/Departure: 121.100
Burlington Clearance Delivery: 119.150
Burlington Ground: 126.300
Burlington Ground: 348.600
Burlington Tower: 257.800
Burlington Tower: 118.300

NOTE: This is a stereo feed - for best results use speakers or headphones w/ stereo listening capability

KBTV Twr/App (Archives)
Burlington, Vermont, United States

Feed Status: UP
Listen in your browser - HTML5 player(in browser, HTML5)
Listen right in your browser(in browser, requires Flash)
Click here to listen with your own player(launches your MP3 player)

KBTV 201428Z 01005KT 1 1/2SM -SN BR OVC005 M02/M03 A2992 RMK AO2 P0000 T10171028

KBTV Airport Info (Airnav.com)

KBTV Flight Activity (Flightaware)

Listeners: 0 out of 1388 total

Burlington Approach/Departure: 121.100
Burlington Tower: 118.300

KBUF App/Dep (Archives)
Buffalo, New York, United States

Feed Status: UP
Listen in your browser - HTML5 player(in browser, HTML5)
Listen right in your browser(in browser, requires Flash)
Click here to listen with your own player(launches your MP3 player)

KBUF 201422Z 29007KT 1 1/4SM R23/4000V6000FT -SN BR BKN005 OVC017 01/00 A2995 RMK AO2 P0001 T00060000

KBUF Airport Info (Airnav.com)

KBUF Flight Activity (Flightaware)

Listeners: 0 out of 1388 total

Buffalo Approach: 126.150
Buffalo Approach: 126.500
Buffalo Flight Service: 122.200
Buffalo Flight Service/Weather/Customs: 122.600
Emergency/Guard: 121.500

Sponsored by LiveATC.net

KBUF Tower (Archives)
Buffalo, New York, United States

Feed Status: UP
Listen in your browser - HTML5 player(in browser, HTML5)
Listen right in your browser(in browser, requires Flash)
Click here to listen with your own player(launches your MP3 player)

KBUF 201422Z 29007KT 1 1/4SM R23/4000V6000FT -SN BR BKN005 OVC017 01/00 A2995 RMK AO2 P0001 T00060000

KBUF Airport Info (Airnav.com)

KBUF Flight Activity (Flightaware)

Listeners: 0 out of 1388 total

Buffalo Tower: 120.500

Sponsored by LiveATC.net

KBUF Tower/App (Archives)
Buffalo, New York, United States

Feed Status: UP
Listen in your browser - HTML5 player(in browser, HTML5)
Listen right in your browser(in browser, requires Flash)
Click here to listen with your own player(launches your MP3 player)

KBUF 201422Z 29007KT 1 1/4SM R23/4000V6000FT -SN BR BKN005 OVC017 01/00 A2995 RMK AO2 P0001 T00060000

KBUF Airport Info (Airnav.com)

KBUF Flight Activity (Flightaware)

Listeners: 3 out of 1388 total

Buffalo Approach: 126.500
Buffalo Approach: 126.150
Buffalo Tower: 120.500

KBUR Gnd/Twr/App (Archives)
Burbank, California, United States

Feed Status: UP
Listen in your browser - HTML5 player(in browser, HTML5)
Listen right in your browser(in browser, requires Flash)
Click here to listen with your own player(launches your MP3 player)

KBUR 201353Z 00000KT 10SM CLR 10/M01 A2999 RMK AO2 SLP146 T01001011 $

KBUR Airport Info (Airnav.com)

KBUR Flight Activity (Flightaware)

Listeners: 1 out of 1388 total

KBUR Ground: 123.900
KBUR Tower: 118.700
SOCAL Approach (Moorpark Sector): 128.750
SOCAL Approach (Valley Sector): 124.600
SOCAL Approach (Woodland Sector): 134.200

KBUR Ground/Tower (Archives)
Burbank, California, United States

Feed Status: UP
Listen in your browser - HTML5 player(in browser, HTML5)
Listen right in your browser(in browser, requires Flash)
Click here to listen with your own player(launches your MP3 player)

KBUR 201353Z 00000KT 10SM CLR 10/M01 A2999 RMK AO2 SLP146 T01001011 $

KBUR Airport Info (Airnav.com)

KBUR Flight Activity (Flightaware)

Listeners: 2 out of 1388 total

KBUR Ground: 123.900
KBUR Tower: 118.700

KCAE Gnd/Twr/App (Archives)
Columbia, South Carolina, United States

Feed Status: UP
Listen in your browser - HTML5 player(in browser, HTML5)
Listen right in your browser(in browser, requires Flash)
Click here to listen with your own player(launches your MP3 player)

KCAE 201356Z 24006KT 10SM OVC065 13/12 A3005 RMK AO2 SLP176 T01330117

KCAE Airport Info (Airnav.com)

KCAE Flight Activity (Flightaware)

Listeners: 0 out of 1388 total

Columbia Approach/Departure: 338.200
Columbia Approach/Departure: 285.600
Columbia Approach/Departure: 124.150
Columbia Approach/Departure: 133.400
Columbia Clearance Delivery: 119.750
Columbia Ground: 348.600
Columbia Ground: 121.900
Columbia Tower: 257.800
Columbia Tower: 119.500
Emergency/Guard: 121.500
Emergency/Guard: 243.000

KCAK App/Dep (Archives)
Akron, Ohio, United States

Feed Status: UP
Listen in your browser - HTML5 player(in browser, HTML5)
Listen right in your browser(in browser, requires Flash)
Click here to listen with your own player(launches your MP3 player)

KCAK 201351Z 27009KT 1 1/2SM -SN BR BKN008 OVC016 01/M02 A3004 RMK AO2 SFC VIS 2 SLP182 P0000 T00061017

KCAK Airport Info (Airnav.com)

KCAK Flight Activity (Flightaware)

Listeners: 0 out of 1388 total

Akron-Canton Approach (Final): 126.400
Akron-Canton Approach/Departure: 118.600
Akron-Canton Approach/Departure: 125.500
Akron-Canton Approach/Departure (backup): 127.050

Sponsored by: LiveATC.net

KCAK ATIS (Archives)
Akron, Ohio, United States

Feed Status: UP
Listen in your browser - HTML5 player(in browser, HTML5)
Listen right in your browser(in browser, requires Flash)
Click here to listen with your own player(launches your MP3 player)

KCAK 201351Z 27009KT 1 1/2SM -SN BR BKN008 OVC016 01/M02 A3004 RMK AO2 SFC VIS 2 SLP182 P0000 T00061017

KCAK Airport Info (Airnav.com)

KCAK Flight Activity (Flightaware)

Listeners: 0 out of 1388 total

Akron-Canton ATIS: 121.050

KCAK Del/Gnd/Twr (Archives)
Akron, Ohio, United States

Feed Status: UP
Listen in your browser - HTML5 player(in browser, HTML5)
Listen right in your browser(in browser, requires Flash)
Click here to listen with your own player(launches your MP3 player)

KCAK 201351Z 27009KT 1 1/2SM -SN BR BKN008 OVC016 01/M02 A3004 RMK AO2 SFC VIS 2 SLP182 P0000 T00061017

KCAK Airport Info (Airnav.com)

KCAK Flight Activity (Flightaware)

Listeners: 0 out of 1388 total

Akron-Canton Clearance: 132.050
Akron-Canton Ground: 121.700
Akron-Canton Tower: 134.750
Emergency/Guard: 121.500

Sponsored by: LiveATC.net

KCAK Del/Gnd/Twr/App (Archives)
Akron, Ohio, United States

Feed Status: UP
Listen in your browser - HTML5 player(in browser, HTML5)
Listen right in your browser(in browser, requires Flash)
Click here to listen with your own player(launches your MP3 player)

KCAK 201351Z 27009KT 1 1/2SM -SN BR BKN008 OVC016 01/M02 A3004 RMK AO2 SFC VIS 2 SLP182 P0000 T00061017

KCAK Airport Info (Airnav.com)

KCAK Flight Activity (Flightaware)

Listeners: 0 out of 1388 total

Akron-Canton Approach: 118.600
Akron-Canton Approach: 125.500
Akron-Canton Clearance: 132.050
Akron-Canton Departure: 126.400
Akron-Canton Ground: 121.700
Akron-Canton Tower: 134.750
Emergency/Guard: 121.500

Sponsored by: LiveATC.net

KCHA Twr/App (Archives)
Chattanooga, Tennessee, United States

Feed Status: UP
Listen in your browser - HTML5 player(in browser, HTML5)
Listen right in your browser(in browser, requires Flash)
Click here to listen with your own player(launches your MP3 player)

KCHA 201353Z 32008KT 10SM SCT027 BKN034 08/02 A3019 RMK AO2 SLP224 T00830017

KCHA Airport Info (Airnav.com)

KCHA Flight Activity (Flightaware)

Listeners: 1 out of 1388 total

Chattanooga Approach/Departure: 119.200
Chattanooga Approach/Departure: 125.100
Chattanooga Tower: 118.300

KCHS Gnd/Twr/App (Archives)
Charleston, South Carolina, United States

Feed Status: UP
Listen in your browser - HTML5 player(in browser, HTML5)
Listen right in your browser(in browser, requires Flash)
Click here to listen with your own player(launches your MP3 player)

KCHS 201356Z 28005KT 10SM BKN095 15/11 A3008 RMK AO2 SLP186 T01500111

KCHS Airport Info (Airnav.com)

KCHS Flight Activity (Flightaware)

Listeners: 0 out of 1388 total

Charleston Approach/Departure: 306.925
Charleston Approach/Departure: 120.700
Charleston Approach/Departure: 379.925
Charleston Approach/Departure: 119.300
Charleston Ground: 121.900
Charleston Ground: 348.600
Charleston Tower: 239.000
Charleston Tower: 126.000
Emergency/Guard: 121.500
Emergency/Guard: 243.000

KCID Del/Gnd/Twr/App (Archives)
Cedar Rapids, Iowa, United States

Feed Status: UP
Listen in your browser - HTML5 player(in browser, HTML5)
Listen right in your browser(in browser, requires Flash)
Click here to listen with your own player(launches your MP3 player)

KCID 201402Z 28004KT 8SM SCT023 M07/M09 A3028 RMK AO2 T10721094

KCID Airport Info (Airnav.com)

KCID Flight Activity (Flightaware)

Listeners: 0 out of 1388 total

Cedar Rapids Approach (North): 134.050
Cedar Rapids Approach (South): 119.700
Cedar Rapids Clearance Delivery: 125.450
Cedar Rapids Ground: 121.600
Cedar Rapids Tower: 118.700

Note: Feed sponsored by Iowa Flight Training

KCMH Twr/App (Archives)
Columbus, Ohio, United States

Feed Status: UP
Listen in your browser - HTML5 player(in browser, HTML5)
Listen right in your browser(in browser, requires Flash)
Click here to listen with your own player(launches your MP3 player)

KCMH 201425Z 29010KT 6SM HZ BKN013 OVC019 02/M01 A3012 RMK AO2 T00221006

KCMH Airport Info (Airnav.com)

KCMH Flight Activity (Flightaware)

Listeners: 0 out of 1388 total

Columbus Approach (Final): 118.200
Columbus Approach/Departure (North): 125.950
Columbus Approach/Departure (South): 119.150
Columbus Clearance Delivery: 126.300
Columbus Tower: 132.700
Columbus Tower: 127.525
Columbus Unicom: 122.950
Emergency/Guard: 121.500

KCMI Del/Gnd/Twr/App (Archives)
Champaign/Urbana, Illinois, United States

Feed Status: UP
Listen in your browser - HTML5 player(in browser, HTML5)
Listen right in your browser(in browser, requires Flash)
Click here to listen with your own player(launches your MP3 player)

KCMI 201353Z 30010KT 10SM CLR M02/M04 A3025 RMK AO2 SLP252 T10171039

KCMI Airport Info (Airnav.com)

KCMI Flight Activity (Flightaware)

Listeners: 0 out of 1388 total

Champaign Approach/Departure: 132.850
Champaign Approach/Departure: 121.350
Champaign Approach/Departure: 133.975
Champaign Clearance Delivery: 128.750
Champaign Ground: 121.800
Champaign Tower: 120.400
Champaign Tower: 127.825

KCOS Gnd/Twr/App/Dep (Archives)
Colorado Springs, Colorado, United States

Feed Status: UP
Listen in your browser - HTML5 player(in browser, HTML5)
Listen right in your browser(in browser, requires Flash)
Click here to listen with your own player(launches your MP3 player)

KCOS 201354Z 01007KT 10SM CLR M04/M09 A3022 RMK AO2 SLP273 T10441089

KCOS Airport Info (Airnav.com)

KCOS Flight Activity (Flightaware)

Listeners: 0 out of 1388 total

Springs Approach/Departure: 120.600
Springs Approach/Departure (East): 124.000
Springs Ground: 121.700
Springs Tower (East): 133.150

Sponsored by:
Voelker Research

KCRW Tower/Approach (Archives)
Charleston, West Virginia, United States

Feed Status: UP
Listen in your browser - HTML5 player(in browser, HTML5)
Listen right in your browser(in browser, requires Flash)
Click here to listen with your own player(launches your MP3 player)

KCRW 201422Z 28007KT 10SM BKN010 OVC025 04/03 A3012 RMK AO2 T00390028

KCRW Airport Info (Airnav.com)

KCRW Flight Activity (Flightaware)

Listeners: 1 out of 1388 total

Charleston Approach/Departure: 128.500
Charleston Approach/Departure (North): 124.100
Charleston Approach/Departure (South): 119.200
Charleston Clearance Delivery: 118.550
Charleston Ground: 121.800
Charleston Tower: 125.700
Emergency/Guard: 121.500

Sponsored by: LiveATC.net

KDAB App/Dep (Archives)
Daytona Beach, Florida, United States

Feed Status: UP
Listen in your browser - HTML5 player(in browser, HTML5)
Listen right in your browser(in browser, requires Flash)
Click here to listen with your own player(launches your MP3 player)

KDAB 201427Z 02006KT 2SM +RA BR BKN020 BKN045 21/20 A3011 RMK AO2 SFC VIS 2 1/2 RAB18 P0000 T02110200

KDAB Airport Info (Airnav.com)

KDAB Flight Activity (Flightaware)

Listeners: 1 out of 1388 total

Daytona Approach (East/Low): 123.900
Daytona Approach (North/High): 118.850
Daytona Approach (South/High): 127.075
Daytona Approach (West 8000-10000'): 125.725
Daytona Approach (West SFC-3500): 126.550
Daytona Approach/Departure (South): 125.350

Sponsored by LiveATC.net and ATP Flight Schools

KDAB App/Dep (All) (Archives)
Daytona Beach, Florida, United States

Feed Status: UP
Listen in your browser - HTML5 player(in browser, HTML5)
Listen right in your browser(in browser, requires Flash)
Click here to listen with your own player(launches your MP3 player)

KDAB 201427Z 02006KT 2SM +RA BR BKN020 BKN045 21/20 A3011 RMK AO2 SFC VIS 2 1/2 RAB18 P0000 T02110200

KDAB Airport Info (Airnav.com)

KDAB Flight Activity (Flightaware)

Listeners: 0 out of 1388 total

Daytona Approach (East/Low): 123.900
Daytona Approach (North/High): 118.850
Daytona Approach (North/Low): 125.800
Daytona Approach (South/High): 127.075
Daytona Approach (West 8000-10000'): 125.725
Daytona Approach (West SFC-3500): 126.550
Daytona Approach/Departure (South): 125.350

KDAB Approach (North/Low) (Archives)
Daytona Beach, Florida, United States

Feed Status: UP
Listen in your browser - HTML5 player(in browser, HTML5)
Listen right in your browser(in browser, requires Flash)
Click here to listen with your own player(launches your MP3 player)

KDAB 201427Z 02006KT 2SM +RA BR BKN020 BKN045 21/20 A3011 RMK AO2 SFC VIS 2 1/2 RAB18 P0000 T02110200

KDAB Airport Info (Airnav.com)

KDAB Flight Activity (Flightaware)

Listeners: 2 out of 1388 total

Daytona Approach (North/Low): 125.800

KDAB ATIS (Archives)
Daytona Beach, Florida, United States

Feed Status: UP
Listen in your browser - HTML5 player(in browser, HTML5)
Listen right in your browser(in browser, requires Flash)
Click here to listen with your own player(launches your MP3 player)

KDAB 201427Z 02006KT 2SM +RA BR BKN020 BKN045 21/20 A3011 RMK AO2 SFC VIS 2 1/2 RAB18 P0000 T02110200

KDAB Airport Info (Airnav.com)

KDAB Flight Activity (Flightaware)

Listeners: 13 out of 1388 total

Daytona Beach ATIS: 120.050

KDAB Clearance/Ground (Archives)
Daytona Beach, Florida, United States

Feed Status: UP
Listen in your browser - HTML5 player(in browser, HTML5)
Listen right in your browser(in browser, requires Flash)
Click here to listen with your own player(launches your MP3 player)

KDAB 201427Z 02006KT 2SM +RA BR BKN020 BKN045 21/20 A3011 RMK AO2 SFC VIS 2 1/2 RAB18 P0000 T02110200

KDAB Airport Info (Airnav.com)

KDAB Flight Activity (Flightaware)

Listeners: 0 out of 1388 total

Daytona Clearance: 119.300
Daytona Ground: 121.900

Sponsored by LiveATC.net and ATP Flight Schools

KDAB Tower (120.7) (Archives)
Daytona Beach, Florida, United States

Feed Status: UP
Listen in your browser - HTML5 player(in browser, HTML5)
Listen right in your browser(in browser, requires Flash)
Click here to listen with your own player(launches your MP3 player)

KDAB 201427Z 02006KT 2SM +RA BR BKN020 BKN045 21/20 A3011 RMK AO2 SFC VIS 2 1/2 RAB18 P0000 T02110200

KDAB Airport Info (Airnav.com)

KDAB Flight Activity (Flightaware)

Listeners: 0 out of 1388 total

Daytona Tower (Primary 7L/25R): 120.700

Sponsored by LiveATC.net and ATP Flight Schools

KDAB Tower (Both) (Archives)
Daytona Beach, Florida, United States

Feed Status: UP
Listen in your browser - HTML5 player(in browser, HTML5)
Listen right in your browser(in browser, requires Flash)
Click here to listen with your own player(launches your MP3 player)

KDAB 201427Z 02006KT 2SM +RA BR BKN020 BKN045 21/20 A3011 RMK AO2 SFC VIS 2 1/2 RAB18 P0000 T02110200

KDAB Airport Info (Airnav.com)

KDAB Flight Activity (Flightaware)

Listeners: 0 out of 1388 total

Daytona Tower (Primary 7L/25R): 120.700
Daytona Tower (Secondary 7R/25L): 118.100

Sponsored by LiveATC.net and ATP Flight Schools

KDAY Del/Gnd/Twr/App (Archives)
Dayton, Ohio, United States

Feed Status: UP
Listen in your browser - HTML5 player(in browser, HTML5)
Listen right in your browser(in browser, requires Flash)
Click here to listen with your own player(launches your MP3 player)

KDAY 201356Z 29005KT 4SM BR FEW011 FEW019 OVC034 02/00 A3014 RMK AO2 DZE41 SLP213 P0000 T00170000

KDAY Airport Info (Airnav.com)

KDAY Flight Activity (Flightaware)

Listeners: 1 out of 1388 total

Aero Enroute Dayton: 129.200
Aero Enroute Dayton: 129.150
Aero Enroute Dayton: 131.025
Air-To-Air: 123.450
Air-to-Air: 122.750
Columbus Approach/Departure (Backup): 118.000
Columbus Approach/Departure (Backup): 370.875
Columbus Approach/Departure (Backup): 269.225
Columbus Approach/Departure (Backup): 127.225
Columbus Approach/Departure (Backup): 353.700
Columbus Approach/Departure (Northeast): 323.150
Columbus Approach/Departure (Northeast): 118.425
Columbus Approach/Departure (South Satellite): 327.125
Columbus Approach/Departure (South Satellite): 126.500
Columbus Approach/Departure (Southeast): 118.850
Columbus Approach/Departure (Southeast): 269.275
Columbus Approach/Departure (West): 305.200
Columbus Approach/Departure (West): 134.450
Dayton Clearance Delivery: 121.750
Dayton Ground: 121.900
Dayton Heli-to-Heli: 123.025
Dayton Tower: 257.700
Dayton Tower: 119.900
Emergency/Guard: 243.000
Emergency/Guard: 121.500
UNICOM: 122.950

KDMA/KTUS Twr/Ops/ZAB (Archives)
Tucson, Arizona, United States

Feed Status: UP
Listen in your browser - HTML5 player(in browser, HTML5)
Listen right in your browser(in browser, requires Flash)
Click here to listen with your own player(launches your MP3 player)

KTUS 201353Z 00000KT 10SM CLR 09/M04 A3006 RMK AO2 SLP157 T00941044

KTUS Airport Info (Airnav.com)

KTUS Flight Activity (Flightaware)

Listeners: 1 out of 1388 total

357FS Ops: 139.725
358FS Ops: 138.500
Albuquerque Center (Sector 47 Silver City/Low/UHF): 327.150
Albuquerque Center (Sector 90 San Simon/High/UHF): 281.500
AWACS: 364.200
BigFoot: 234.800
BigFoot: 271.000
Davis-Monthan AFB: 253.500
Tucson 162FW SOS IOPS: 392.200
Tucson Tower (UHF): 257.800

KTUS Del/Gnd/Twr/App/KDMA (Archives)
Tucson, Arizona, United States

Feed Status: UP
Listen in your browser - HTML5 player(in browser, HTML5)
Listen right in your browser(in browser, requires Flash)
Click here to listen with your own player(launches your MP3 player)

KTUS 201353Z 00000KT 10SM CLR 09/M04 A3006 RMK AO2 SLP157 T00941044

KTUS Airport Info (Airnav.com)

KTUS Flight Activity (Flightaware)

Listeners: 2 out of 1388 total

KDMA Tower: 118.850
Tucson Approach (alt): 128.500
Tucson Approach (East/South): 125.100
Tucson Approach (North): 119.400
Tucson Approach (Practice Areas): 125.900
Tucson Clearance Delivery: 126.650
Tucson Ground: 124.400
Tucson Tower: 118.300
Tucson Tower (alt): 119.000

Feed sponsored by:

KDSM Gnd/Twr/App (Archives)
Des Moines, Iowa, United States

Feed Status: UP
Listen in your browser - HTML5 player(in browser, HTML5)
Listen right in your browser(in browser, requires Flash)
Click here to listen with your own player(launches your MP3 player)

KDSM 201424Z 25006KT 10SM FEW013 M07/M09 A3031 RMK AO2 T10671094

KDSM Airport Info (Airnav.com)

KDSM Flight Activity (Flightaware)

Listeners: 3 out of 1388 total

Des Moines Approach/Departure: 135.200
Des Moines Approach/Departure: 123.900
Des Moines Ground: 121.900
Des Moines Tower: 118.300

KELP App/Dep (Archives)
El Paso, Texas, United States

Feed Status: UP
Listen in your browser - HTML5 player(in browser, HTML5)
Listen right in your browser(in browser, requires Flash)
Click here to listen with your own player(launches your MP3 player)

KELP 201351Z 36011KT 10SM FEW250 05/M06 A3025 RMK AO2 SLP222 T00501061

KELP Airport Info (Airnav.com)

KELP Flight Activity (Flightaware)

Listeners: 1 out of 1388 total

5T6 Dona Ana County Santa Teresa CTAF: 122.725
El Paso Approach/Departure: 124.250
El Paso Approach/Departure: 119.150

KELP Gnd/Twr/App/Dep (Archives)
El Paso, Texas, United States

Feed Status: UP
Listen in your browser - HTML5 player(in browser, HTML5)
Listen right in your browser(in browser, requires Flash)
Click here to listen with your own player(launches your MP3 player)

KELP 201351Z 36011KT 10SM FEW250 05/M06 A3025 RMK AO2 SLP222 T00501061

KELP Airport Info (Airnav.com)

KELP Flight Activity (Flightaware)

Listeners: 0 out of 1388 total

El Paso Approach/Departure: 119.150
El Paso Approach/Departure: 124.250
El Paso Ground: 121.900
El Paso Tower: 118.300
El Paso Tower: 126.050

KEVV Twr/ZID (Archives)
Evansville, Indiana, United States

Feed Status: UP
Listen in your browser - HTML5 player(in browser, HTML5)
Listen right in your browser(in browser, requires Flash)
Click here to listen with your own player(launches your MP3 player)

KEVV 201354Z 34008KT 10SM OVC017 02/M01 A3028 RMK AO2 SLP256 T00171011

KEVV Airport Info (Airnav.com)

KEVV Flight Activity (Flightaware)

Listeners: 0 out of 1388 total

Evansville Tower: 118.700
Evansville UNICOM: 122.950
ZID Indy Center (Evansville RCAG): 128.300

Sponsored by: Tri-State Aero

KFAT App/Dep (Archives)
Fresno, California, United States

Feed Status: UP
Listen in your browser - HTML5 player(in browser, HTML5)
Listen right in your browser(in browser, requires Flash)
Click here to listen with your own player(launches your MP3 player)

KFAT 201353Z 00000KT 3SM HZ CLR 04/M01 A3002 RMK AO2 SLP164 T00441006

KFAT Airport Info (Airnav.com)

KFAT Flight Activity (Flightaware)

Listeners: 1 out of 1388 total

Fresno Approach/Departure: 118.500
Fresno Approach/Departure: 132.350
Fresno Approach/Departure (IFR pickup KFCH): 119.000
Fresno Approach/Departure (North): 119.600

KFAT ATIS (Archives)
Fresno, California, United States

Feed Status: UP
Listen in your browser - HTML5 player(in browser, HTML5)
Listen right in your browser(in browser, requires Flash)
Click here to listen with your own player(launches your MP3 player)

KFAT 201353Z 00000KT 3SM HZ CLR 04/M01 A3002 RMK AO2 SLP164 T00441006

KFAT Airport Info (Airnav.com)

KFAT Flight Activity (Flightaware)

Listeners: 0 out of 1388 total

Fresno ATIS: 121.350

KFAT Del/Gnd/Twr (Archives)
Fresno, California, United States

Feed Status: UP
Listen in your browser - HTML5 player(in browser, HTML5)
Listen right in your browser(in browser, requires Flash)
Click here to listen with your own player(launches your MP3 player)

KFAT 201353Z 00000KT 3SM HZ CLR 04/M01 A3002 RMK AO2 SLP164 T00441006

KFAT Airport Info (Airnav.com)

KFAT Flight Activity (Flightaware)

Listeners: 0 out of 1388 total

Fresno Clearance Delivery: 124.350
Fresno Ground: 121.700
Fresno Ground (UHF): 348.600
Fresno Tower: 118.200
Fresno Tower (backup): 128.100
Fresno Tower (UHF): 251.100

KFAT Del/Gnd/Twr/App (Archives)
Fresno, California, United States

Feed Status: UP
Listen in your browser - HTML5 player(in browser, HTML5)
Listen right in your browser(in browser, requires Flash)
Click here to listen with your own player(launches your MP3 player)

KFAT 201353Z 00000KT 3SM HZ CLR 04/M01 A3002 RMK AO2 SLP164 T00441006

KFAT Airport Info (Airnav.com)

KFAT Flight Activity (Flightaware)

Listeners: 0 out of 1388 total

Fresno Approach/Departure: 132.350
Fresno Approach/Departure: 118.500
Fresno Approach/Departure (IFR pickup KFCH): 119.000
Fresno Approach/Departure (North): 119.600
Fresno Clearance Delivery: 124.350
Fresno Ground: 121.700
Fresno Ground (UHF): 348.600
Fresno Tower: 118.200
Fresno Tower (backup): 128.100
Fresno Tower (UHF): 251.100

KFLL ATIS (Archives)
Fort Lauderdale, Florida, United States

Feed Status: UP
Listen in your browser - HTML5 player(in browser, HTML5)
Listen right in your browser(in browser, requires Flash)
Click here to listen with your own player(launches your MP3 player)

KFLL 201353Z 00000KT 10SM FEW025 26/23 A3008 RMK AO2 SLP184 T02610228

KFLL Airport Info (Airnav.com)

KFLL Flight Activity (Flightaware)

Listeners: 0 out of 1388 total

KFLL ATIS: 135.000

KFLL Clearance Delivery (Archives)
Fort Lauderdale, Florida, United States

Feed Status: UP
Listen in your browser - HTML5 player(in browser, HTML5)
Listen right in your browser(in browser, requires Flash)
Click here to listen with your own player(launches your MP3 player)

KFLL 201353Z 00000KT 10SM FEW025 26/23 A3008 RMK AO2 SLP184 T02610228

KFLL Airport Info (Airnav.com)

KFLL Flight Activity (Flightaware)

Listeners: 0 out of 1388 total

KFLL Clearance Delivery: 128.400

KFLL Departure (Archives)
Fort Lauderdale, Florida, United States

Feed Status: UP
Listen in your browser - HTML5 player(in browser, HTML5)
Listen right in your browser(in browser, requires Flash)
Click here to listen with your own player(launches your MP3 player)

KMIA 201353Z 00000KT 10SM FEW025 FEW300 26/22 A3009 RMK AO2 SLP189 T02610222

KMIA Airport Info (Airnav.com)

KMIA Flight Activity (Flightaware)

Listeners: 0 out of 1388 total

Miami Departure (FLL): 126.050

KFLL Ground (Archives)
Fort Lauderdale, Florida, United States

Feed Status: UP
Listen in your browser - HTML5 player(in browser, HTML5)
Listen right in your browser(in browser, requires Flash)
Click here to listen with your own player(launches your MP3 player)

KFLL 201353Z 00000KT 10SM FEW025 26/23 A3008 RMK AO2 SLP184 T02610228

KFLL Airport Info (Airnav.com)

KFLL Flight Activity (Flightaware)

Listeners: 0 out of 1388 total

KFLL Ground: 121.700
KFLL Ground: 121.400

KFLL Ground (Main) (Archives)
Fort Lauderdale, Florida, United States

Feed Status: UP
Listen in your browser - HTML5 player(in browser, HTML5)
Listen right in your browser(in browser, requires Flash)
Click here to listen with your own player(launches your MP3 player)

KFLL 201353Z 00000KT 10SM FEW025 26/23 A3008 RMK AO2 SLP184 T02610228

KFLL Airport Info (Airnav.com)

KFLL Flight Activity (Flightaware)

Listeners: 0 out of 1388 total

KFLL Ground: 121.400

KFLL Ground (Secondary) (Archives)
Fort Lauderdale, Florida, United States

Feed Status: UP
Listen in your browser - HTML5 player(in browser, HTML5)
Listen right in your browser(in browser, requires Flash)
Click here to listen with your own player(launches your MP3 player)

KFLL 201353Z 00000KT 10SM FEW025 26/23 A3008 RMK AO2 SLP184 T02610228

KFLL Airport Info (Airnav.com)

KFLL Flight Activity (Flightaware)

Listeners: 0 out of 1388 total

KFLL Ground: 121.700

KFLL Ground/Tower (Archives)
Fort Lauderdale, Florida, United States

Feed Status: UP
Listen in your browser - HTML5 player(in browser, HTML5)
Listen right in your browser(in browser, requires Flash)
Click here to listen with your own player(launches your MP3 player)

KFLL 201353Z 00000KT 10SM FEW025 26/23 A3008 RMK AO2 SLP184 T02610228

KFLL Airport Info (Airnav.com)

KFLL Flight Activity (Flightaware)

Listeners: 1 out of 1388 total

KFLL Ground: 121.400
KFLL Tower (Rwy 10LR/28RL): 119.300

KFLL Ramp (Archives)
Fort Lauderdale, Florida, United States

Feed Status: UP
Listen in your browser - HTML5 player(in browser, HTML5)
Listen right in your browser(in browser, requires Flash)
Click here to listen with your own player(launches your MP3 player)

KFLL 201353Z 00000KT 10SM FEW025 26/23 A3008 RMK AO2 SLP184 T02610228

KFLL Airport Info (Airnav.com)

KFLL Flight Activity (Flightaware)

Listeners: 0 out of 1388 total

Fort Lauderdale Ramp (North): 118.175
Fort Lauderdale Ramp (South): 129.875

KFLL Tower (Archives)
Fort Lauderdale, Florida, United States

Feed Status: UP
Listen in your browser - HTML5 player(in browser, HTML5)
Listen right in your browser(in browser, requires Flash)
Click here to listen with your own player(launches your MP3 player)

KFLL 201353Z 00000KT 10SM FEW025 26/23 A3008 RMK AO2 SLP184 T02610228

KFLL Airport Info (Airnav.com)

KFLL Flight Activity (Flightaware)

Listeners: 0 out of 1388 total

KFLL Tower (Rwy 10LR/28RL): 119.300
KFLL Tower (Secondary): 120.200

KFLL Tower (Main) (Archives)
Fort Lauderdale, Florida, United States

Feed Status: UP
Listen in your browser - HTML5 player(in browser, HTML5)
Listen right in your browser(in browser, requires Flash)
Click here to listen with your own player(launches your MP3 player)

KFLL 201353Z 00000KT 10SM FEW025 26/23 A3008 RMK AO2 SLP184 T02610228

KFLL Airport Info (Airnav.com)

KFLL Flight Activity (Flightaware)

Listeners: 0 out of 1388 total

KFLL Tower (Rwy 10LR/28RL): 119.300

KFLL Tower (Secondary) (Archives)
Fort Lauderdale, Florida, United States

Feed Status: UP
Listen in your browser - HTML5 player(in browser, HTML5)
Listen right in your browser(in browser, requires Flash)
Click here to listen with your own player(launches your MP3 player)

KFLL 201353Z 00000KT 10SM FEW025 26/23 A3008 RMK AO2 SLP184 T02610228

KFLL Airport Info (Airnav.com)

KFLL Flight Activity (Flightaware)

Listeners: 0 out of 1388 total

KFLL Tower (Secondary): 120.200

KFWA App/Dep (Archives)
Fort Wayne, Indiana, United States

Feed Status: UP
Listen in your browser - HTML5 player(in browser, HTML5)
Listen right in your browser(in browser, requires Flash)
Click here to listen with your own player(launches your MP3 player)

KFWA 201403Z 01008KT 3SM -DZSN BR FEW006 OVC013 01/M01 A3016 RMK AO2 P0000 T00061011

KFWA Airport Info (Airnav.com)

KFWA Flight Activity (Flightaware)

Listeners: 0 out of 1388 total

Fort Wayne Approach/Departure: 127.200
Fort Wayne Approach/Departure: 132.150
Fort Wayne Approach/Departure: 135.325

KFWA Del/Ground (Archives)
Fort Wayne, Indiana, United States

Feed Status: UP
Listen in your browser - HTML5 player(in browser, HTML5)
Listen right in your browser(in browser, requires Flash)
Click here to listen with your own player(launches your MP3 player)

KFWA 201403Z 01008KT 3SM -DZSN BR FEW006 OVC013 01/M01 A3016 RMK AO2 P0000 T00061011

KFWA Airport Info (Airnav.com)

KFWA Flight Activity (Flightaware)

Listeners: 0 out of 1388 total

Fort Wayne Clearance Delivery: 124.750
Fort Wayne Ground: 121.900

KFWA Tower (Archives)
Fort Wayne, Indiana, United States

Feed Status: UP
Listen in your browser - HTML5 player(in browser, HTML5)
Listen right in your browser(in browser, requires Flash)
Click here to listen with your own player(launches your MP3 player)

KFWA 201403Z 01008KT 3SM -DZSN BR FEW006 OVC013 01/M01 A3016 RMK AO2 P0000 T00061011

KFWA Airport Info (Airnav.com)

KFWA Flight Activity (Flightaware)

Listeners: 0 out of 1388 total

Fort Wayne Tower: 119.100

KGEG Del/Gnd/Twr/App (Archives)
Spokane, Washington, United States

Feed Status: UP
Listen in your browser - HTML5 player(in browser, HTML5)
Listen right in your browser(in browser, requires Flash)
Click here to listen with your own player(launches your MP3 player)

KGEG 201353Z 00000KT 9SM CLR M03/M05 A3017 RMK AO2 SLP238 T10331050

KGEG Airport Info (Airnav.com)

KGEG Flight Activity (Flightaware)

Listeners: 1 out of 1388 total

Air to Air: 123.950
Emergency/Guard: 121.500
Seattle Handoff: 126.100
Spokane Approach/Departure: 123.750
Spokane Approach/Departure: 133.350
Spokane Clearance Delivery: 127.550
Spokane Ground: 121.900
Spokane Tower: 118.300

KGRB Del/Gnd/Twr/App (Archives)
Green Bay, Wisconsin, United States

Feed Status: UP
Listen in your browser - HTML5 player(in browser, HTML5)
Listen right in your browser(in browser, requires Flash)
Click here to listen with your own player(launches your MP3 player)

KGRB 201353Z 33003KT 10SM OVC029 M06/M12 A3020 RMK AO2 SLP238 T10611117

KGRB Airport Info (Airnav.com)

KGRB Flight Activity (Flightaware)

Listeners: 0 out of 1388 total

Emergency/Guard: 243.000
Emergency/Guard: 121.500
Green Bay Approach/Departure: 126.300
Green Bay Approach/Departure: 119.250
Green Bay Approach/Departure: 119.400
Green Bay Approach/Departure: 338.200
Green Bay Approach/Departure (ZMP): 370.900
Green Bay Approach/Departure (ZMP): 125.550
Green Bay Clearance Delivery: 121.750
Green Bay Departure: 126.550
Green Bay Flight Service Station: 122.750
Green Bay Ground: 121.900
Green Bay Radio: 122.500
Green Bay Radio: 122.250
Green Bay Tower: 257.800
Green Bay Tower: 118.700

KGRR App/Dep (Archives)
Grand Rapids, Michigan, United States

Feed Status: UP
Listen in your browser - HTML5 player(in browser, HTML5)
Listen right in your browser(in browser, requires Flash)
Click here to listen with your own player(launches your MP3 player)

KGRR 201353Z 36006KT 10SM OVC049 M03/M08 A3018 RMK AO2 SLP229 T10331083

KGRR Airport Info (Airnav.com)

KGRR Flight Activity (Flightaware)

Listeners: 0 out of 1388 total

Grand Rapids Approach (North): 124.600
Grand Rapids Approach (South): 128.400

KGRR App/Dep (North) (Archives)
Grand Rapids, Michigan, United States

Feed Status: UP
Listen in your browser - HTML5 player(in browser, HTML5)
Listen right in your browser(in browser, requires Flash)
Click here to listen with your own player(launches your MP3 player)

KGRR 201353Z 36006KT 10SM OVC049 M03/M08 A3018 RMK AO2 SLP229 T10331083

KGRR Airport Info (Airnav.com)

KGRR Flight Activity (Flightaware)

Listeners: 0 out of 1388 total

Grand Rapids Approach (North): 124.600

KGRR App/Dep (South) (Archives)
Grand Rapids, Michigan, United States

Feed Status: UP
Listen in your browser - HTML5 player(in browser, HTML5)
Listen right in your browser(in browser, requires Flash)
Click here to listen with your own player(launches your MP3 player)

KGRR 201353Z 36006KT 10SM OVC049 M03/M08 A3018 RMK AO2 SLP229 T10331083

KGRR Airport Info (Airnav.com)

KGRR Flight Activity (Flightaware)

Listeners: 0 out of 1388 total

Grand Rapids Approach (South): 128.400

KGRR Clearance Delivery (Archives)
Grand Rapids, Michigan, United States

Feed Status: UP
Listen in your browser - HTML5 player(in browser, HTML5)
Listen right in your browser(in browser, requires Flash)
Click here to listen with your own player(launches your MP3 player)

KGRR 201353Z 36006KT 10SM OVC049 M03/M08 A3018 RMK AO2 SLP229 T10331083

KGRR Airport Info (Airnav.com)

KGRR Flight Activity (Flightaware)

Listeners: 0 out of 1388 total

Grand Rapids Clearance Delivery: 119.300

KGRR Del/Gnd/Twr (Archives)
Grand Rapids, Michigan, United States

Feed Status: UP
Listen in your browser - HTML5 player(in browser, HTML5)
Listen right in your browser(in browser, requires Flash)
Click here to listen with your own player(launches your MP3 player)

KGRR 201353Z 36006KT 10SM OVC049 M03/M08 A3018 RMK AO2 SLP229 T10331083

KGRR Airport Info (Airnav.com)

KGRR Flight Activity (Flightaware)

Listeners: 0 out of 1388 total

Grand Rapids Clearance Delivery: 119.300
Grand Rapids Ground: 121.800
Grand Rapids Tower: 135.650

KGRR Del/Gnd/Twr/App (Archives)
Grand Rapids, Michigan, United States

Feed Status: UP
Listen in your browser - HTML5 player(in browser, HTML5)
Listen right in your browser(in browser, requires Flash)
Click here to listen with your own player(launches your MP3 player)

KGRR 201353Z 36006KT 10SM OVC049 M03/M08 A3018 RMK AO2 SLP229 T10331083

KGRR Airport Info (Airnav.com)

KGRR Flight Activity (Flightaware)

Listeners: 0 out of 1388 total

Grand Rapids Approach (North): 124.600
Grand Rapids Approach (South): 128.400
Grand Rapids Clearance Delivery: 119.300
Grand Rapids Ground: 121.800
Grand Rapids Tower: 135.650

KGRR Emergency/Guard (Archives)
Grand Rapids, Michigan, United States

Feed Status: UP
Listen in your browser - HTML5 player(in browser, HTML5)
Listen right in your browser(in browser, requires Flash)
Click here to listen with your own player(launches your MP3 player)

KGRR 201353Z 36006KT 10SM OVC049 M03/M08 A3018 RMK AO2 SLP229 T10331083

KGRR Airport Info (Airnav.com)

KGRR Flight Activity (Flightaware)

Listeners: 0 out of 1388 total

Emergency/Guard: 121.500

KGRR Gnd/Twr/App (Archives)
Grand Rapids, Michigan, United States

Feed Status: UP
Listen in your browser - HTML5 player(in browser, HTML5)
Listen right in your browser(in browser, requires Flash)
Click here to listen with your own player(launches your MP3 player)

KGRR 201353Z 36006KT 10SM OVC049 M03/M08 A3018 RMK AO2 SLP229 T10331083

KGRR Airport Info (Airnav.com)

KGRR Flight Activity (Flightaware)

Listeners: 0 out of 1388 total

Grand Rapids Approach (North): 124.600
Grand Rapids Approach (South): 128.400
Grand Rapids Ground: 121.800
Grand Rapids Tower: 135.650

KGRR Ground (Archives)
Grand Rapids, Michigan, United States

Feed Status: UP
Listen in your browser - HTML5 player(in browser, HTML5)
Listen right in your browser(in browser, requires Flash)
Click here to listen with your own player(launches your MP3 player)

KGRR 201353Z 36006KT 10SM OVC049 M03/M08 A3018 RMK AO2 SLP229 T10331083

KGRR Airport Info (Airnav.com)

KGRR Flight Activity (Flightaware)

Listeners: 0 out of 1388 total

Grand Rapids Ground: 121.800

KGRR Tower (Archives)
Grand Rapids, Michigan, United States

Feed Status: UP
Listen in your browser - HTML5 player(in browser, HTML5)
Listen right in your browser(in browser, requires Flash)
Click here to listen with your own player(launches your MP3 player)

KGRR 201353Z 36006KT 10SM OVC049 M03/M08 A3018 RMK AO2 SLP229 T10331083

KGRR Airport Info (Airnav.com)

KGRR Flight Activity (Flightaware)

Listeners: 1 out of 1388 total

Grand Rapids Tower: 135.650

KGSP App/Dep (East) (Archives)
Greer, South Carolina, United States

Feed Status: UP
Listen in your browser - HTML5 player(in browser, HTML5)
Listen right in your browser(in browser, requires Flash)
Click here to listen with your own player(launches your MP3 player)

KGMU 201353Z 24006KT 10SM CLR 13/09 A3004 RMK AO2 SLP169 T01280089

KGMU Airport Info (Airnav.com)

KGMU Flight Activity (Flightaware)

Listeners: 0 out of 1388 total

Greer Approach (East): 119.400

KGSP App/Dep (West) (Archives)
Greer, South Carolina, United States

Feed Status: UP
Listen in your browser - HTML5 player(in browser, HTML5)
Listen right in your browser(in browser, requires Flash)
Click here to listen with your own player(launches your MP3 player)

KGMU 201353Z 24006KT 10SM CLR 13/09 A3004 RMK AO2 SLP169 T01280089

KGMU Airport Info (Airnav.com)

KGMU Flight Activity (Flightaware)

Listeners: 0 out of 1388 total

Greer Approach (West): 118.800

KGSP ATIS (Archives)
Greer, South Carolina, United States

Feed Status: UP
Listen in your browser - HTML5 player(in browser, HTML5)
Listen right in your browser(in browser, requires Flash)
Click here to listen with your own player(launches your MP3 player)

KGMU 201353Z 24006KT 10SM CLR 13/09 A3004 RMK AO2 SLP169 T01280089

KGMU Airport Info (Airnav.com)

KGMU Flight Activity (Flightaware)

Listeners: 0 out of 1388 total

Greer ATIS: 134.250

KGSP Tower (Archives)
Greer, South Carolina, United States

Feed Status: UP
Listen in your browser - HTML5 player(in browser, HTML5)
Listen right in your browser(in browser, requires Flash)
Click here to listen with your own player(launches your MP3 player)

KGMU 201353Z 24006KT 10SM CLR 13/09 A3004 RMK AO2 SLP169 T01280089

KGMU Airport Info (Airnav.com)

KGMU Flight Activity (Flightaware)

Listeners: 0 out of 1388 total

Greer Tower: 120.100

KHSV App/Dep (Archives)
Huntsville, Alabama, United States

Feed Status: UP
Listen in your browser - HTML5 player(in browser, HTML5)
Listen right in your browser(in browser, requires Flash)
Click here to listen with your own player(launches your MP3 player)

KHSV 201353Z 34006KT 10SM OVC026 07/03 A3022 RMK AO2 SLP233 T00720033

KHSV Airport Info (Airnav.com)

KHSV Flight Activity (Flightaware)

Listeners: 0 out of 1388 total

Huntsville Approach (180-359): 118.050
Huntsville Approach (360-179): 125.600
Huntsville Approach (ASR): 118.750

KHSV ATIS (Archives)
Huntsville, Alabama, United States

Feed Status: UP
Listen in your browser - HTML5 player(in browser, HTML5)
Listen right in your browser(in browser, requires Flash)
Click here to listen with your own player(launches your MP3 player)

KHSV 201353Z 34006KT 10SM OVC026 07/03 A3022 RMK AO2 SLP233 T00720033

KHSV Airport Info (Airnav.com)

KHSV Flight Activity (Flightaware)

Listeners: 0 out of 1388 total

Huntsville ATIS: 121.250

KHSV Del/Gnd (Archives)
Huntsville, Alabama, United States

Feed Status: UP
Listen in your browser - HTML5 player(in browser, HTML5)
Listen right in your browser(in browser, requires Flash)
Click here to listen with your own player(launches your MP3 player)

KHSV 201353Z 34006KT 10SM OVC026 07/03 A3022 RMK AO2 SLP233 T00720033

KHSV Airport Info (Airnav.com)

KHSV Flight Activity (Flightaware)

Listeners: 0 out of 1388 total

Huntsville Clearance: 120.350
Huntsville Ground: 121.900

KHSV Gnd/Twr (Archives)
Huntsville, Alabama, United States

Feed Status: UP
Listen in your browser - HTML5 player(in browser, HTML5)
Listen right in your browser(in browser, requires Flash)
Click here to listen with your own player(launches your MP3 player)

KHSV 201353Z 34006KT 10SM OVC026 07/03 A3022 RMK AO2 SLP233 T00720033

KHSV Airport Info (Airnav.com)

KHSV Flight Activity (Flightaware)

Listeners: 0 out of 1388 total

Huntsville Ground: 121.900
Huntsville Tower: 127.600

KHSV Gnd/Twr/App/Dep (Archives)
Huntsville, Alabama, United States

Feed Status: UP
Listen in your browser - HTML5 player(in browser, HTML5)
Listen right in your browser(in browser, requires Flash)
Click here to listen with your own player(launches your MP3 player)

KHSV 201353Z 34006KT 10SM OVC026 07/03 A3022 RMK AO2 SLP233 T00720033

KHSV Airport Info (Airnav.com)

KHSV Flight Activity (Flightaware)

Listeners: 1 out of 1388 total

Huntsville Approach (180-359): 118.050
Huntsville Approach (360-179): 125.600
Huntsville Approach (ASR): 118.750
Huntsville Ground: 121.900
Huntsville Tower: 127.600

KBTR/KHZR/L38 Del/Gnd/Twr/App/CTAF (Archives)
New Roads, Louisiana, United States

Feed Status: UP
Listen in your browser - HTML5 player(in browser, HTML5)
Listen right in your browser(in browser, requires Flash)
Click here to listen with your own player(launches your MP3 player)

KBTR 201353Z 36005KT 10SM BKN010 OVC023 10/09 A3025 RMK AO2 SLP242 T01000089

KBTR Airport Info (Airnav.com)

KBTR Flight Activity (Flightaware)

Listeners: 0 out of 1388 total

Baton Rouge Approach/Departure (East): 126.500
Baton Rouge Approach/Departure (Military): 278.300
Baton Rouge Approach/Departure (West): 120.300
Baton Rouge Clearance Delivery: 119.400
Baton Rouge Ground: 121.900
Baton Rouge Tower (Military): 257.800
Baton Rouge Tower/CTAF: 118.450
Baton Rouge UNICOM: 122.950
Houston Center (App/Dep when Approach closed): 338.250
Houston Center (App/Dep when Approach closed): 126.350
Louisiana Regional L38 CTAF: 123.000
United Airlines: 129.925

Sponsored by:

KICT Approach (Archives)
Wichita, Kansas, United States

Feed Status: UP
Listen in your browser - HTML5 player(in browser, HTML5)
Listen right in your browser(in browser, requires Flash)
Click here to listen with your own player(launches your MP3 player)

KICT 201353Z 00000KT 10SM CLR M02/M03 A3035 RMK AO2 SLP287 I1000 T10221033 $

KICT Airport Info (Airnav.com)

KICT Flight Activity (Flightaware)

Listeners: 0 out of 1388 total

Wichita Approach: 125.500

Feed courtesy of Hubris Communications

KICT Approach (East) (Archives)
Wichita, Kansas, United States

Feed Status: UP
Listen in your browser - HTML5 player(in browser, HTML5)
Listen right in your browser(in browser, requires Flash)
Click here to listen with your own player(launches your MP3 player)

KICT 201353Z 00000KT 10SM CLR M02/M03 A3035 RMK AO2 SLP287 I1000 T10221033 $

KICT Airport Info (Airnav.com)

KICT Flight Activity (Flightaware)

Listeners: 0 out of 1388 total

Wichita Approach (East): 134.800

Feed courtesy of Hubris Communications

KICT Approach (West) (Archives)
Wichita, Kansas, United States

Feed Status: UP
Listen in your browser - HTML5 player(in browser, HTML5)
Listen right in your browser(in browser, requires Flash)
Click here to listen with your own player(launches your MP3 player)

KICT 201353Z 00000KT 10SM CLR M02/M03 A3035 RMK AO2 SLP287 I1000 T10221033 $

KICT Airport Info (Airnav.com)

KICT Flight Activity (Flightaware)

Listeners: 0 out of 1388 total

Wichita Approach (West): 126.700

Feed courtesy of Hubris Communications

KICT Ground (Archives)
Wichita, Kansas, United States

Feed Status: UP
Listen in your browser - HTML5 player(in browser, HTML5)
Listen right in your browser(in browser, requires Flash)
Click here to listen with your own player(launches your MP3 player)

KICT 201353Z 00000KT 10SM CLR M02/M03 A3035 RMK AO2 SLP287 I1000 T10221033 $

KICT Airport Info (Airnav.com)

KICT Flight Activity (Flightaware)

Listeners: 0 out of 1388 total

Wichita Ground: 121.900

Feed courtesy of Hubris Communications

KICT Tower (Archives)
Wichita, Kansas, United States

Feed Status: UP
Listen in your browser - HTML5 player(in browser, HTML5)
Listen right in your browser(in browser, requires Flash)
Click here to listen with your own player(launches your MP3 player)

KICT 201353Z 00000KT 10SM CLR M02/M03 A3035 RMK AO2 SLP287 I1000 T10221033 $

KICT Airport Info (Airnav.com)

KICT Flight Activity (Flightaware)

Listeners: 0 out of 1388 total

Wichita Tower: 118.200

Feed courtesy of Hubris Communications

KIND App/Dep
Indianapolis, Indiana, United States

Feed Status: DOWN
Offline since: 2018-11-13 00:59:02 UTC

KIND 201424Z 30011KT 5SM BR OVC010 00/M02 A3020 RMK AO2 T00001017

KIND Airport Info (Airnav.com)

Indy Approach: 119.300
Indy Approach (East): 127.150
Indy Approach (Final): 123.950
Indy Approach (IC): 128.175
Indy Approach (West): 121.100
Indy Approach (West): 124.650
Indy Approach/Departure: 134.850
Indy Approach/Departure: 120.650
Indy Approach/Departure: 135.450
Indy Departure: 119.500
Indy Departure (East): 124.950
Indy Departure (West): 119.050

KIND Ground
Indianapolis, Indiana, United States

Feed Status: DOWN
Offline since: 2018-11-13 00:59:02 UTC

KIND 201424Z 30011KT 5SM BR OVC010 00/M02 A3020 RMK AO2 T00001017

KIND Airport Info (Airnav.com)

Indianapolis Ground: 121.800
Indianapolis Ground: 121.900
Indianapolis Ground/Pre-Taxi Clearance: 128.750

KIND Tower
Indianapolis, Indiana, United States

Feed Status: DOWN
Offline since: 2018-11-13 00:59:02 UTC

KIND 201424Z 30011KT 5SM BR OVC010 00/M02 A3020 RMK AO2 T00001017

KIND Airport Info (Airnav.com)

Indianapolis Tower: 123.950
Indianapolis Tower (Primary): 120.900

KIND UNICOM/FSS/FBO
Indianapolis, Indiana, United States

Feed Status: DOWN
Offline since: 2018-11-13 00:59:02 UTC

KIND 201424Z 30011KT 5SM BR OVC010 00/M02 A3020 RMK AO2 T00001017

KIND Airport Info (Airnav.com)

Air to Air: 123.400
Air to Air: 123.450
Emergency/Guard: 121.500
Flight Service Station (FSS): 122.100
Helicopter UNICOM: 123.050
Million Air FBO: 130.575
Signature FBO: 129.725
UNICOM: 122.950

KIPT Gnd/Twr/ZNY
Williamsport, Pennsylvania, United States

Feed Status: DOWN
Offline since: 2018-11-10 10:42:02 UTC

KIPT 201354Z 28004KT 9SM SCT007 OVC100 03/02 A2993 RMK AO2 SLP140 T00280017

KIPT Airport Info (Airnav.com)

New York Center (Sector 91 Williamsport Low): 124.900
Williamsport Ground: 121.900
Williamsport Tower: 119.100

KISP (NY Approach) (Archives)
Islip, New York, United States

Feed Status: UP
Listen in your browser - HTML5 player(in browser, HTML5)
Listen right in your browser(in browser, requires Flash)
Click here to listen with your own player(launches your MP3 player)

KISP 201356Z 01009KT 2SM -RA BR OVC005 07/07 A2984 RMK AO2 SFC VIS 4 RAB1258 SLP103 P0002 T00670067

KISP Airport Info (Airnav.com)

KISP Flight Activity (Flightaware)

Listeners: 1 out of 1388 total

New York Approach/Departure (Islip): 120.050

Note: Brought to you by LongIslandFlying.com

KISP Del/Gnd/Twr/App (Archives)
Islip, New York, United States

Feed Status: UP
Listen in your browser - HTML5 player(in browser, HTML5)
Listen right in your browser(in browser, requires Flash)
Click here to listen with your own player(launches your MP3 player)

KISP 201356Z 01009KT 2SM -RA BR OVC005 07/07 A2984 RMK AO2 SFC VIS 4 RAB1258 SLP103 P0002 T00670067

KISP Airport Info (Airnav.com)

KISP Flight Activity (Flightaware)

Listeners: 0 out of 1388 total

Emergency/Guard: 121.500
Emergency/Guard: 243.000
Islip Clearance Delivery: 121.850
Islip Ground: 135.300
Islip Tower: 335.500
Islip Tower: 119.300
Islip Tower: 124.300
Islip Tower: 239.300
New York Approach/Departure (Islip): 120.050

KISP Tower (Archives)
Islip, New York, United States

Feed Status: UP
Listen in your browser - HTML5 player(in browser, HTML5)
Listen right in your browser(in browser, requires Flash)
Click here to listen with your own player(launches your MP3 player)

KISP 201356Z 01009KT 2SM -RA BR OVC005 07/07 A2984 RMK AO2 SFC VIS 4 RAB1258 SLP103 P0002 T00670067

KISP Airport Info (Airnav.com)

KISP Flight Activity (Flightaware)

Listeners: 0 out of 1388 total

Islip Tower: 119.300

Note: Brought to you by LongIslandFlying.com

KJAN Gnd/Twr/App/Dep (Archives)
Jackson, Mississippi, United States

Feed Status: UP
Listen in your browser - HTML5 player(in browser, HTML5)
Listen right in your browser(in browser, requires Flash)
Click here to listen with your own player(launches your MP3 player)

KJAN 201354Z 36007KT 10SM BKN019 07/04 A3027 RMK AO2 SLP250 T00720044 $

KJAN Airport Info (Airnav.com)

KJAN Flight Activity (Flightaware)

Listeners: 0 out of 1388 total

Jackson Approach/Departure: 123.900
Jackson Approach/Departure: 125.250
Jackson Ground: 121.700
Jackson Tower: 120.900

KJAX Approach/Departure (Archives)
Jacksonville, Florida, United States

Feed Status: UP
Listen in your browser - HTML5 player(in browser, HTML5)
Listen right in your browser(in browser, requires Flash)
Click here to listen with your own player(launches your MP3 player)

KJAX 201356Z 00000KT 10SM BKN046 BKN110 OVC250 16/15 A3012 RMK AO2 SLP201 T01610150

KJAX Airport Info (Airnav.com)

KJAX Flight Activity (Flightaware)

Listeners: 1 out of 1388 total

Jacksonville Approach/Departure: 127.000
Jacksonville Approach/Departure: 124.900
Jacksonville Approach/Departure: 123.800
Jacksonville Approach/Departure: 120.750
Jacksonville Approach/Departure: 118.000
Jacksonville Approach/Departure: 119.000

KJAX ATIS (Archives)
Jacksonville, Florida, United States

Feed Status: UP
Listen in your browser - HTML5 player(in browser, HTML5)
Listen right in your browser(in browser, requires Flash)
Click here to listen with your own player(launches your MP3 player)

KJAX 201356Z 00000KT 10SM BKN046 BKN110 OVC250 16/15 A3012 RMK AO2 SLP201 T01610150

KJAX Airport Info (Airnav.com)

KJAX Flight Activity (Flightaware)

Listeners: 0 out of 1388 total

Jacksonville D-ATIS: 125.850

KJAX Gnd/Twr (Archives)
Jacksonville, Florida, United States

Feed Status: UP
Listen in your browser - HTML5 player(in browser, HTML5)
Listen right in your browser(in browser, requires Flash)
Click here to listen with your own player(launches your MP3 player)

KJAX 201356Z 00000KT 10SM BKN046 BKN110 OVC250 16/15 A3012 RMK AO2 SLP201 T01610150

KJAX Airport Info (Airnav.com)

KJAX Flight Activity (Flightaware)

Listeners: 0 out of 1388 total

Jacksonville Ground: 121.900
Jacksonville Tower: 118.300

KLAN Del/Gnd/Twr/App (Archives)
Lansing, Michigan, United States

Feed Status: UP
Listen in your browser - HTML5 player(in browser, HTML5)
Listen right in your browser(in browser, requires Flash)
Click here to listen with your own player(launches your MP3 player)

KLAN 201353Z AUTO 36007KT 10SM FEW041 M04/M08 A3017 RMK AO2 SLP227 T10391083

KLAN Airport Info (Airnav.com)

KLAN Flight Activity (Flightaware)

Listeners: 1 out of 1388 total

CTAF/UNICOM (K60G): 122.900
CTAF/UNICOM (KTEW/4D0): 122.700
Emergency/Guard: 121.500
Lansing Approach: 127.300
Lansing Approach/Departure (North): 133.475
Lansing Approach/Departure (South): 118.650
Lansing Clearance Delivery: 123.675
Lansing Ground: 121.900
Lansing Tower: 119.900
Lansing UNICOM: 122.950

KLBB Gnd/Twr/App
Lubbock, Texas, United States

Feed Status: DOWN
Offline since: 2018-11-15 15:07:03 UTC

KLBB 201353Z 00000KT 10SM CLR M03/M07 A3035 RMK AO2 SLP288 T10331067

KLBB Airport Info (Airnav.com)

Emergency/Guard: 121.500
Hub City Aviation: 123.500
Lubbock Approach/Departure: 119.200
Lubbock Ground: 121.900
Lubbock Tower: 120.500

Feed sponsored by: Hub City Aviation

KLNK Approach (Archives)
Lincoln, Nebraska, United States

Feed Status: UP
Listen in your browser - HTML5 player(in browser, HTML5)
Listen right in your browser(in browser, requires Flash)
Click here to listen with your own player(launches your MP3 player)

KLNK 201354Z 18006KT 9SM OVC060 M05/M07 A3031 RMK AO2 SLP278 T10501072

KLNK Airport Info (Airnav.com)

KLNK Flight Activity (Flightaware)

Listeners: 0 out of 1388 total

Lincoln Approach: 124.000

This feed provided by KB0WXR

KLNK Tower (Archives)
Lincoln, Nebraska, United States

Feed Status: UP
Listen in your browser - HTML5 player(in browser, HTML5)
Listen right in your browser(in browser, requires Flash)
Click here to listen with your own player(launches your MP3 player)

KLNK 201354Z 18006KT 9SM OVC060 M05/M07 A3031 RMK AO2 SLP278 T10501072

KLNK Airport Info (Airnav.com)

KLNK Flight Activity (Flightaware)

Listeners: 0 out of 1388 total

Lincoln Tower: 118.500

This feed provided by KB0WXR

KLNK Twr/App (Archives)
Lincoln, Nebraska, United States

Feed Status: UP
Listen in your browser - HTML5 player(in browser, HTML5)
Listen right in your browser(in browser, requires Flash)
Click here to listen with your own player(launches your MP3 player)

KLNK 201354Z 18006KT 9SM OVC060 M05/M07 A3031 RMK AO2 SLP278 T10501072

KLNK Airport Info (Airnav.com)

KLNK Flight Activity (Flightaware)

Listeners: 0 out of 1388 total

Lincoln Approach: 124.000
Lincoln Tower: 118.500

Emergency/Guard (Archives)
Midland, Texas, United States

Feed Status: UP
Listen in your browser - HTML5 player(in browser, HTML5)
Listen right in your browser(in browser, requires Flash)
Click here to listen with your own player(launches your MP3 player)

KMAF 201353Z 36004KT 9SM CLR 00/M02 A3036 RMK AO2 SLP277 T00001017

KMAF Airport Info (Airnav.com)

KMAF Flight Activity (Flightaware)

Listeners: 0 out of 1388 total

Emergency/Guard: 121.500

KMAF App/Dep (North) (Archives)
Midland, Texas, United States

Feed Status: UP
Listen in your browser - HTML5 player(in browser, HTML5)
Listen right in your browser(in browser, requires Flash)
Click here to listen with your own player(launches your MP3 player)

KMAF 201353Z 36004KT 9SM CLR 00/M02 A3036 RMK AO2 SLP277 T00001017

KMAF Airport Info (Airnav.com)

KMAF Flight Activity (Flightaware)

Listeners: 0 out of 1388 total

Midland Approach/Departure: 124.600

KMAF App/Dep (North/South) (Archives)
Midland, Texas, United States

Feed Status: UP
Listen in your browser - HTML5 player(in browser, HTML5)
Listen right in your browser(in browser, requires Flash)
Click here to listen with your own player(launches your MP3 player)

KMAF 201353Z 36004KT 9SM CLR 00/M02 A3036 RMK AO2 SLP277 T00001017

KMAF Airport Info (Airnav.com)

KMAF Flight Activity (Flightaware)

Listeners: 0 out of 1388 total

Midland Approach/Departure: 121.100
Midland Approach/Departure: 124.600

KMAF App/Dep (South) (Archives)
Midland, Texas, United States

Feed Status: UP
Listen in your browser - HTML5 player(in browser, HTML5)
Listen right in your browser(in browser, requires Flash)
Click here to listen with your own player(launches your MP3 player)

KMAF 201353Z 36004KT 9SM CLR 00/M02 A3036 RMK AO2 SLP277 T00001017

KMAF Airport Info (Airnav.com)

KMAF Flight Activity (Flightaware)

Listeners: 0 out of 1388 total

Midland Approach/Departure: 121.100

KMAF ATIS (Archives)
Midland, Texas, United States

Feed Status: UP
Listen in your browser - HTML5 player(in browser, HTML5)
Listen right in your browser(in browser, requires Flash)
Click here to listen with your own player(launches your MP3 player)

KMAF 201353Z 36004KT 9SM CLR 00/M02 A3036 RMK AO2 SLP277 T00001017

KMAF Airport Info (Airnav.com)

KMAF Flight Activity (Flightaware)

Listeners: 0 out of 1388 total

Midland ATIS: 126.800

KMAF Clearance Delivery (Archives)
Midland, Texas, United States

Feed Status: UP
Listen in your browser - HTML5 player(in browser, HTML5)
Listen right in your browser(in browser, requires Flash)
Click here to listen with your own player(launches your MP3 player)

KMAF 201353Z 36004KT 9SM CLR 00/M02 A3036 RMK AO2 SLP277 T00001017

KMAF Airport Info (Airnav.com)

KMAF Flight Activity (Flightaware)

Listeners: 0 out of 1388 total

Midland Clearance Delivery: 118.050

KMAF Del/Gnd (Archives)
Midland, Texas, United States

Feed Status: UP
Listen in your browser - HTML5 player(in browser, HTML5)
Listen right in your browser(in browser, requires Flash)
Click here to listen with your own player(launches your MP3 player)

KMAF 201353Z 36004KT 9SM CLR 00/M02 A3036 RMK AO2 SLP277 T00001017

KMAF Airport Info (Airnav.com)

KMAF Flight Activity (Flightaware)

Listeners: 0 out of 1388 total

Midland Clearance Delivery: 118.050
Midland Ground: 121.900

KMAF Ground (Archives)
Midland, Texas, United States

Feed Status: UP
Listen in your browser - HTML5 player(in browser, HTML5)
Listen right in your browser(in browser, requires Flash)
Click here to listen with your own player(launches your MP3 player)

KMAF 201353Z 36004KT 9SM CLR 00/M02 A3036 RMK AO2 SLP277 T00001017

KMAF Airport Info (Airnav.com)

KMAF Flight Activity (Flightaware)

Listeners: 0 out of 1388 total

Midland Ground: 121.900

KMAF Tower (Archives)
Midland, Texas, United States

Feed Status: UP
Listen in your browser - HTML5 player(in browser, HTML5)
Listen right in your browser(in browser, requires Flash)
Click here to listen with your own player(launches your MP3 player)

KMAF 201353Z 36004KT 9SM CLR 00/M02 A3036 RMK AO2 SLP277 T00001017

KMAF Airport Info (Airnav.com)

KMAF Flight Activity (Flightaware)

Listeners: 0 out of 1388 total

Midland Tower: 118.700

KMDW App/Dep (Archives)
Chicago, Illinois, United States

Feed Status: UP
Listen in your browser - HTML5 player(in browser, HTML5)
Listen right in your browser(in browser, requires Flash)
Click here to listen with your own player(launches your MP3 player)

KORD 201351Z 32008KT 10SM OVC019 M01/M05 A3021 RMK AO2 SLP237 T10111050

KORD Airport Info (Airnav.com)

KORD Flight Activity (Flightaware)

Listeners: 0 out of 1388 total

Chicago Approach/Departure (South Satellite Sector 1): 128.200
Chicago Approach/Departure (South Satellite Sector 2): 119.350

Feed sponsored by LiveATC.net and Aviation Universe

KMDW ATIS (Archives)
Chicago, Illinois, United States

Feed Status: UP
Listen in your browser - HTML5 player(in browser, HTML5)
Listen right in your browser(in browser, requires Flash)
Click here to listen with your own player(launches your MP3 player)

KMDW 201353Z 32008KT 10SM OVC016 M01/M05 A3022 RMK AO2 SNE38 SLP244 P0000 T10061050

KMDW Airport Info (Airnav.com)

KMDW Flight Activity (Flightaware)

Listeners: 0 out of 1388 total

Midway ATIS: 132.750

KMDW Clearance/Metering (Archives)
Chicago, Illinois, United States

Feed Status: UP
Listen in your browser - HTML5 player(in browser, HTML5)
Listen right in your browser(in browser, requires Flash)
Click here to listen with your own player(launches your MP3 player)

KMDW 201353Z 32008KT 10SM OVC016 M01/M05 A3022 RMK AO2 SNE38 SLP244 P0000 T10061050

KMDW Airport Info (Airnav.com)

KMDW Flight Activity (Flightaware)

Listeners: 0 out of 1388 total

Midway Clearance Delivery/Metering: 124.625

KMDW Ground #1 (Archives)
Chicago, Illinois, United States

Feed Status: UP
Listen in your browser - HTML5 player(in browser, HTML5)
Listen right in your browser(in browser, requires Flash)
Click here to listen with your own player(launches your MP3 player)

KMDW 201353Z 32008KT 10SM OVC016 M01/M05 A3022 RMK AO2 SNE38 SLP244 P0000 T10061050

KMDW Airport Info (Airnav.com)

KMDW Flight Activity (Flightaware)

Listeners: 1 out of 1388 total

Midway Ground: 121.650

KMDW Tower #1 (Archives)
Chicago, Illinois, United States

Feed Status: UP
Listen in your browser - HTML5 player(in browser, HTML5)
Listen right in your browser(in browser, requires Flash)
Click here to listen with your own player(launches your MP3 player)

KMDW 201353Z 32008KT 10SM OVC016 M01/M05 A3022 RMK AO2 SNE38 SLP244 P0000 T10061050

KMDW Airport Info (Airnav.com)

KMDW Flight Activity (Flightaware)

Listeners: 0 out of 1388 total

Midway Tower: 135.200

NORCAL App (EXPO/127.4) (Archives)
Sacramento, California, United States

Feed Status: UP
Listen in your browser - HTML5 player(in browser, HTML5)
Listen right in your browser(in browser, requires Flash)
Click here to listen with your own player(launches your MP3 player)

KMHR 201345Z 00000KT 10SM SKC 03/M01 A3000

KMHR Airport Info (Airnav.com)

KMHR Flight Activity (Flightaware)

Listeners: 0 out of 1388 total

NORCAL Approach (EXPO Sector): 127.400

KMHT ATIS (Archives)
Manchester, New Hampshire, United States

Feed Status: UP
Listen in your browser - HTML5 player(in browser, HTML5)
Listen right in your browser(in browser, requires Flash)
Click here to listen with your own player(launches your MP3 player)

KMHT 201353Z 36005KT 1/2SM R35/4000VP6000FT -SN BR OVC006 01/00 A2991 RMK AO2 SFC VIS 3/4 SLP145 P0004 T00060000

KMHT Airport Info (Airnav.com)

KMHT Flight Activity (Flightaware)

Listeners: 0 out of 1388 total

Manchester ATIS: 119.550

KMHT Boston App/Dep #1 (Archives)
Manchester, New Hampshire, United States

Feed Status: UP
Listen in your browser - HTML5 player(in browser, HTML5)
Listen right in your browser(in browser, requires Flash)
Click here to listen with your own player(launches your MP3 player)

KMHT 201353Z 36005KT 1/2SM R35/4000VP6000FT -SN BR OVC006 01/00 A2991 RMK AO2 SFC VIS 3/4 SLP145 P0004 T00060000

KMHT Airport Info (Airnav.com)

KMHT Flight Activity (Flightaware)

Listeners: 0 out of 1388 total

Boston Approach: 127.350
Boston Approach (4000-10000'): 134.750
Boston Approach (backup): 125.825
Boston Approach (MHT/ASH) - below 4000': 124.900

Sponsored by LiveATC.net

KMHT Boston App/Dep #2 (Archives)
Manchester, New Hampshire, United States

Feed Status: UP
Listen in your browser - HTML5 player(in browser, HTML5)
Listen right in your browser(in browser, requires Flash)
Click here to listen with your own player(launches your MP3 player)

KMHT 201353Z 36005KT 1/2SM R35/4000VP6000FT -SN BR OVC006 01/00 A2991 RMK AO2 SFC VIS 3/4 SLP145 P0004 T00060000

KMHT Airport Info (Airnav.com)

KMHT Flight Activity (Flightaware)

Listeners: 0 out of 1388 total

Boston Approach (4000-10000'): 134.750
Boston Approach (MHT/ASH) - below 4000': 124.900

KMHT Del/Gnd/Twr (Archives)
Manchester, New Hampshire, United States

Feed Status: UP
Listen in your browser - HTML5 player(in browser, HTML5)
Listen right in your browser(in browser, requires Flash)
Click here to listen with your own player(launches your MP3 player)

KMHT 201353Z 36005KT 1/2SM R35/4000VP6000FT -SN BR OVC006 01/00 A2991 RMK AO2 SFC VIS 3/4 SLP145 P0004 T00060000

KMHT Airport Info (Airnav.com)

KMHT Flight Activity (Flightaware)

Listeners: 0 out of 1388 total

Airport Response 01: 158.730
Airport Response 02: 158.340
Airport Response 03: 159.720
Manchester Clearance Delivery: 135.900
Manchester Ground: 121.900
Manchester Tower: 121.300

Sponsored by LiveATC.net

KMHT Del/Gnd/Twr/App (Archives)
Manchester, New Hampshire, United States

Feed Status: UP
Listen in your browser - HTML5 player(in browser, HTML5)
Listen right in your browser(in browser, requires Flash)
Click here to listen with your own player(launches your MP3 player)

KMHT 201353Z 36005KT 1/2SM R35/4000VP6000FT -SN BR OVC006 01/00 A2991 RMK AO2 SFC VIS 3/4 SLP145 P0004 T00060000

KMHT Airport Info (Airnav.com)

KMHT Flight Activity (Flightaware)

Listeners: 1 out of 1388 total

Airport Response 01: 158.730
Airport Response 02: 158.340
Airport Response 03: 159.720
Boston Approach (4000-10000'): 134.750
Boston Approach (backup): 125.825
Boston Approach (MHT/ASH) - below 4000': 124.900
Emergency/Guard: 121.500
Manchester Clearance Delivery: 135.900
Manchester Ground: 121.900
Manchester Tower: 121.300

KMHT Tower (Archives)
Manchester, New Hampshire, United States

Feed Status: UP
Listen in your browser - HTML5 player(in browser, HTML5)
Listen right in your browser(in browser, requires Flash)
Click here to listen with your own player(launches your MP3 player)

KMHT 201353Z 36005KT 1/2SM R35/4000VP6000FT -SN BR OVC006 01/00 A2991 RMK AO2 SFC VIS 3/4 SLP145 P0004 T00060000

KMHT Airport Info (Airnav.com)

KMHT Flight Activity (Flightaware)

Listeners: 0 out of 1388 total

Manchester Tower: 121.300

KMKE Approach (Archives)
Milwaukee, Wisconsin, United States

Feed Status: UP
Listen in your browser - HTML5 player(in browser, HTML5)
Listen right in your browser(in browser, requires Flash)
Click here to listen with your own player(launches your MP3 player)

KMKE 201352Z 32006KT 10SM FEW024 SCT050 M03/M08 A3020 RMK AO2 SLP238 T10281083

KMKE Airport Info (Airnav.com)

KMKE Flight Activity (Flightaware)

Listeners: 0 out of 1388 total

Milwaukee Approach (East): 118.000
Milwaukee Approach (Rippon Low): 127.375
Milwaukee Approach (West): 126.500
Milwaukee Approach/Departure Overflow: 127.850
Milwaukee Departure (East): 119.650
Milwaukee Departure (West): 125.350

KMKE Tower (Archives)
Milwaukee, Wisconsin, United States

Feed Status: UP
Listen in your browser - HTML5 player(in browser, HTML5)
Listen right in your browser(in browser, requires Flash)
Click here to listen with your own player(launches your MP3 player)

KMKE 201352Z 32006KT 10SM FEW024 SCT050 M03/M08 A3020 RMK AO2 SLP238 T10281083

KMKE Airport Info (Airnav.com)

KMKE Flight Activity (Flightaware)

Listeners: 0 out of 1388 total

Milwaukee Tower: 119.100
Milwaukee Tower: 124.575
Milwaukee Tower (Backup): 118.475

KMKE Tower/App (Archives)
Milwaukee, Wisconsin, United States

Feed Status: UP
Listen in your browser - HTML5 player(in browser, HTML5)
Listen right in your browser(in browser, requires Flash)
Click here to listen with your own player(launches your MP3 player)

KMKE 201352Z 32006KT 10SM FEW024 SCT050 M03/M08 A3020 RMK AO2 SLP238 T10281083

KMKE Airport Info (Airnav.com)

KMKE Flight Activity (Flightaware)

Listeners: 0 out of 1388 total

Milwaukee Approach (East): 118.000
Milwaukee Approach (Rippon Low): 127.375
Milwaukee Approach (West): 126.500
Milwaukee Approach/Departure Overflow: 127.850
Milwaukee Departure (East): 119.650
Milwaukee Departure (West): 125.350
Milwaukee Tower: 119.100
Milwaukee Tower: 124.575
Milwaukee Tower (Backup): 118.475

KMLI Del/Gnd/Twr/App (Archives)
Moline, Illinois, United States

Feed Status: UP
Listen in your browser - HTML5 player(in browser, HTML5)
Listen right in your browser(in browser, requires Flash)
Click here to listen with your own player(launches your MP3 player)

KMLI 201352Z 30009KT 10SM SCT032 M03/M06 A3028 RMK AO2 SLP263 T10281061

KMLI Airport Info (Airnav.com)

KMLI Flight Activity (Flightaware)

Listeners: 2 out of 1388 total

Quad City Approach (N/NE): 125.950
Quad City Approach (S/SE): 133.275
Quad City Clearance: 124.050
Quad City Ground: 121.900
Quad City Tower: 119.400

KMRY App/Dep (Archives)
Monterey, California, United States

Feed Status: UP
Listen in your browser - HTML5 player(in browser, HTML5)
Listen right in your browser(in browser, requires Flash)
Click here to listen with your own player(launches your MP3 player)

KMRY 201354Z 09004KT 10SM FU CLR 07/04 A3000 RMK AO2 SLP171 T00720039

KMRY Airport Info (Airnav.com)

KMRY Flight Activity (Flightaware)

Listeners: 0 out of 1388 total

NORCAL Approach (Fremont Sector/Monterey West): 133.000
NORCAL Approach (Seca Sector/Monterey East): 127.150

Feed sponsored by: EmployNet

KMRY ATIS (Archives)
Monterey, California, United States

Feed Status: UP
Listen in your browser - HTML5 player(in browser, HTML5)
Listen right in your browser(in browser, requires Flash)
Click here to listen with your own player(launches your MP3 player)

KMRY 201354Z 09004KT 10SM FU CLR 07/04 A3000 RMK AO2 SLP171 T00720039

KMRY Airport Info (Airnav.com)

KMRY Flight Activity (Flightaware)

Listeners: 0 out of 1388 total

Monterey ATIS: 119.250

Feed sponsored by: EmployNet

KMRY Del/Gnd/Twr (Archives)
Monterey, California, United States

Feed Status: UP
Listen in your browser - HTML5 player(in browser, HTML5)
Listen right in your browser(in browser, requires Flash)
Click here to listen with your own player(launches your MP3 player)

KMRY 201354Z 09004KT 10SM FU CLR 07/04 A3000 RMK AO2 SLP171 T00720039

KMRY Airport Info (Airnav.com)

KMRY Flight Activity (Flightaware)

Listeners: 0 out of 1388 total

Monterey Clearance Delivery: 135.450
Monterey Ground: 120.875
Monterey Tower: 118.400

Feed sponsored by: EmployNet

KMSN Approach/Departure (Archives)
Madison, Wisconsin, United States

Feed Status: UP
Listen in your browser - HTML5 player(in browser, HTML5)
Listen right in your browser(in browser, requires Flash)
Click here to listen with your own player(launches your MP3 player)

KMSN 201417Z 30006KT 10SM SCT018 M04/M07 A3021 RMK AO2 SNE08 P0000 T10441072 $

KMSN Airport Info (Airnav.com)

KMSN Flight Activity (Flightaware)

Listeners: 2 out of 1388 total

Madison Approach/Departure: 120.100
Madison Approach/Departure: 135.450

KMSN ATIS (Archives)
Madison, Wisconsin, United States

Feed Status: UP
Listen in your browser - HTML5 player(in browser, HTML5)
Listen right in your browser(in browser, requires Flash)
Click here to listen with your own player(launches your MP3 player)

KMSN 201417Z 30006KT 10SM SCT018 M04/M07 A3021 RMK AO2 SNE08 P0000 T10441072 $

KMSN Airport Info (Airnav.com)

KMSN Flight Activity (Flightaware)

Listeners: 0 out of 1388 total

Madison ATIS: 124.650

KMSN Clearance Delivery (Archives)
Madison, Wisconsin, United States

Feed Status: UP
Listen in your browser - HTML5 player(in browser, HTML5)
Listen right in your browser(in browser, requires Flash)
Click here to listen with your own player(launches your MP3 player)

KMSN 201417Z 30006KT 10SM SCT018 M04/M07 A3021 RMK AO2 SNE08 P0000 T10441072 $

KMSN Airport Info (Airnav.com)

KMSN Flight Activity (Flightaware)

Listeners: 0 out of 1388 total

Madison Clearance Delivery: 121.625

KMSN Emergency/Guard (Archives)
Madison, Wisconsin, United States

Feed Status: UP
Listen in your browser - HTML5 player(in browser, HTML5)
Listen right in your browser(in browser, requires Flash)
Click here to listen with your own player(launches your MP3 player)

KMSN 201417Z 30006KT 10SM SCT018 M04/M07 A3021 RMK AO2 SNE08 P0000 T10441072 $

KMSN Airport Info (Airnav.com)

KMSN Flight Activity (Flightaware)

Listeners: 0 out of 1388 total

Emergency/Guard: 121.500

KMSN Ground (Archives)
Madison, Wisconsin, United States

Feed Status: UP
Listen in your browser - HTML5 player(in browser, HTML5)
Listen right in your browser(in browser, requires Flash)
Click here to listen with your own player(launches your MP3 player)

KMSN 201417Z 30006KT 10SM SCT018 M04/M07 A3021 RMK AO2 SNE08 P0000 T10441072 $

KMSN Airport Info (Airnav.com)

KMSN Flight Activity (Flightaware)

Listeners: 0 out of 1388 total

Madison Ground: 121.900

KMSN Tower (Archives)
Madison, Wisconsin, United States

Feed Status: UP
Listen in your browser - HTML5 player(in browser, HTML5)
Listen right in your browser(in browser, requires Flash)
Click here to listen with your own player(launches your MP3 player)

KMSN 201417Z 30006KT 10SM SCT018 M04/M07 A3021 RMK AO2 SNE08 P0000 T10441072 $

KMSN Airport Info (Airnav.com)

KMSN Flight Activity (Flightaware)

Listeners: 1 out of 1388 total

Madison Tower: 119.300

KMSN Twr/App (Archives)
Madison, Wisconsin, United States

Feed Status: UP
Listen in your browser - HTML5 player(in browser, HTML5)
Listen right in your browser(in browser, requires Flash)
Click here to listen with your own player(launches your MP3 player)

KMSN 201417Z 30006KT 10SM SCT018 M04/M07 A3021 RMK AO2 SNE08 P0000 T10441072 $

KMSN Airport Info (Airnav.com)

KMSN Flight Activity (Flightaware)

Listeners: 2 out of 1388 total

Emergency / GUARD: 121.500
Madison Approach (East): 120.100
Madison Approach (West): 135.450
Madison Tower: 119.300

Sponsored by: Wisconsin Aviation

KMYR Gnd/Twr/App (Archives)
Myrtle Beach, South Carolina, United States

Feed Status: UP
Listen in your browser - HTML5 player(in browser, HTML5)
Listen right in your browser(in browser, requires Flash)
Click here to listen with your own player(launches your MP3 player)

KMYR 201356Z 26006KT 10SM OVC095 14/11 A3006 RMK AO2 SLP179 T01440111

KMYR Airport Info (Airnav.com)

KMYR Flight Activity (Flightaware)

Listeners: 2 out of 1388 total

Myrtle Beach Approach/Departure: 119.200
Myrtle Beach Approach/Departure: 127.400
Myrtle Beach ATIS (top of hour): 123.925
Myrtle Beach Ground: 120.300
Myrtle Beach Tower: 128.450

KMYR Gnd/Twr/App (UHF) (Archives)
Myrtle Beach, South Carolina, United States

Feed Status: UP
Listen in your browser - HTML5 player(in browser, HTML5)
Listen right in your browser(in browser, requires Flash)
Click here to listen with your own player(launches your MP3 player)

KMYR 201356Z 26006KT 10SM OVC095 14/11 A3006 RMK AO2 SLP179 T01440111

KMYR Airport Info (Airnav.com)

KMYR Flight Activity (Flightaware)

Listeners: 0 out of 1388 total

Emergency/Guard: 243.000
Myrtle Beach Approach/Departure (171-321 degrees) : 257.950
Myrtle Beach Approach/Departure (322-170 degrees): 350.300
Myrtle Beach Ground: 275.800
Myrtle Beach Tower: 259.300
PMSV (Pilot-to-Meteorological Service): 239.800

KPNS App KNPA Gnd/Twr/App
Pensacola, Florida, United States

Feed Status: DOWN
Offline since: 2018-08-21 21:57:02 UTC

KPNS Airport Info (Airnav.com)

Pensacola Approach/Departure: 120.050
Pensacola Approach/Departure: 119.000
Pensacola Approach/Departure: 118.600
Pensacola Approach/Departure: 270.800
Pensacola Approach/Departure: 269.400
Pensacola Approach/Departure: 120.650
Pensacola Approach/Departure: 360.725
Pensacola Approach/Departure: 351.825
Pensacola Ground: 348.600
Sherman Ground: 336.400
Sherman Ground: 123.450
Sherman Ground: 121.700
Sherman Ground: 340.200
Sherman Tower: 120.700

KPNS/KNPA Del/Gnd/Twr/App
Pensacola, Florida, United States

Feed Status: DOWN
Offline since: 2018-08-21 21:57:02 UTC

KPNS Airport Info (Airnav.com)

Emergency/Guard: 243.000
Emergency/Guard: 121.500
Pensacola Approach/Departure: 120.050
Pensacola Approach/Departure: 119.000
Pensacola Approach/Departure: 120.650
Pensacola Approach/Departure: 269.400
Pensacola Approach/Departure: 270.800
Pensacola Approach/Departure: 351.825
Pensacola Approach/Departure: 360.725
Pensacola Approach/Departure: 118.600
Pensacola Clearance Delivery: 256.875
Pensacola Clearance Delivery: 123.725
Pensacola Ground: 121.900
Pensacola Ground: 348.600
Pensacola Tower: 257.800
Pensacola Tower: 119.900
Sherman Ground: 340.200
Sherman Ground: 123.450
Sherman Ground: 121.700
Sherman Ground: 336.400
Sherman Tower: 120.700

KOAK Del/Gnd/Twr (Archives)
Oakland, California, United States

Feed Status: UP
Listen in your browser - HTML5 player(in browser, HTML5)
Listen right in your browser(in browser, requires Flash)
Click here to listen with your own player(launches your MP3 player)

KOAK 201353Z 07004KT 4SM HZ FU FEW019 06/03 A3000 RMK AO2 SLP157 FU FEW019 T00610028

KOAK Airport Info (Airnav.com)

KOAK Flight Activity (Flightaware)

Listeners: 3 out of 1388 total

Oakland Clearance Delivery: 121.100
Oakland Ground: 121.750
Oakland Ground (North): 121.900
Oakland Tower: 127.200
Oakland Tower (Runways 28L/10R, 28R/10L, 33/15): 118.300

NOTE: Use your player's left-right balance control to select each audio stream.

KOAK Tower (Both)
Oakland, California, United States

Feed Status: DOWN
Offline since: 2018-11-13 13:59:03 UTC

KOAK 201353Z 07004KT 4SM HZ FU FEW019 06/03 A3000 RMK AO2 SLP157 FU FEW019 T00610028

KOAK Airport Info (Airnav.com)

Oakland Tower (Runways 28L/10R, 28R/10L, 33/15): 118.300
Oakland Tower (Rwys 12/30): 127.200

KOAK Tower (Rwys 12/30)
Oakland, California, United States

Feed Status: DOWN
Offline since: 2018-11-13 13:59:03 UTC

KOAK 201353Z 07004KT 4SM HZ FU FEW019 06/03 A3000 RMK AO2 SLP157 FU FEW019 T00610028

KOAK Airport Info (Airnav.com)

Oakland Tower (Rwys 12/30): 127.200

KOAK Tower (Rwys 28R/10L 28L/10R 15/33)
Oakland, California, United States

Feed Status: DOWN
Offline since: 2018-11-13 13:59:03 UTC

KOAK 201353Z 07004KT 4SM HZ FU FEW019 06/03 A3000 RMK AO2 SLP157 FU FEW019 T00610028

KOAK Airport Info (Airnav.com)

Oakland Tower (Runways 28L/10R, 28R/10L, 33/15): 118.300

NORCAL Approach (KOAK) (Archives)
Oakland, California, United States

Feed Status: UP
Listen in your browser - HTML5 player(in browser, HTML5)
Listen right in your browser(in browser, requires Flash)
Click here to listen with your own player(launches your MP3 player)

KOAK 201353Z 07004KT 4SM HZ FU FEW019 06/03 A3000 RMK AO2 SLP157 FU FEW019 T00610028

KOAK Airport Info (Airnav.com)

KOAK Flight Activity (Flightaware)

Listeners: 6 out of 1388 total

NORCAL Approach (KOAK Rwy 29/27R Final): 125.350
NORCAL Approach (Mulford Sector): 124.400

NORCAL Departure (KSFO/KOAK) (Archives)
Oakland, California, United States

Feed Status: UP
Listen in your browser - HTML5 player(in browser, HTML5)
Listen right in your browser(in browser, requires Flash)
Click here to listen with your own player(launches your MP3 player)

KOAK 201353Z 07004KT 4SM HZ FU FEW019 06/03 A3000 RMK AO2 SLP157 FU FEW019 T00610028

KOAK Airport Info (Airnav.com)

KOAK Flight Activity (Flightaware)

Listeners: 4 out of 1388 total

NORCAL Departure (Northeast Departures): 120.900
NORCAL Departure (Northeast Departures): 127.000
NORCAL Departure (Southwest Departures): 127.975
NORCAL Departure (Southwest Departures): 135.100

NOTE: Southwest departures on left channel - Northeast Departures on right channel

KOFF Gnd/Twr/App/ZMP (Archives)
Omaha, Nebraska, United States

Feed Status: UP
Listen in your browser - HTML5 player(in browser, HTML5)
Listen right in your browser(in browser, requires Flash)
Click here to listen with your own player(launches your MP3 player)

KOFF 201356Z AUTO 16003KT 10SM BKN036 M07/M07 A3031 RMK AO2 SLP283 T10741075 $

KOFF Airport Info (Airnav.com)

KOFF Flight Activity (Flightaware)

Listeners: 0 out of 1388 total

Emergency/Guard: 121.500
Minneapolis Center (Sector 27 Low): 119.600
Offutt AFB Ground: 121.700
Offutt AFB Tower: 123.700
Omaha Approach/Departure (East): 124.500
Omaha Approach/Departure (West): 120.100

KOKC App/Dep (NE) (Archives)
Oklahoma City, Oklahoma, United States

Feed Status: UP
Listen in your browser - HTML5 player(in browser, HTML5)
Listen right in your browser(in browser, requires Flash)
Click here to listen with your own player(launches your MP3 player)

KOKC 201352Z 00000KT 10SM CLR M01/M02 A3038 RMK AO2 SLP294 T10061022

KOKC Airport Info (Airnav.com)

KOKC Flight Activity (Flightaware)

Listeners: 0 out of 1388 total

Oke City Approach/Departure: 124.200

Feed sponsored by LiveATC and Russ Roslewski, CFI

KOKC App/Dep (SW) (Archives)
Oklahoma City, Oklahoma, United States

Feed Status: UP
Listen in your browser - HTML5 player(in browser, HTML5)
Listen right in your browser(in browser, requires Flash)
Click here to listen with your own player(launches your MP3 player)

KOKC 201352Z 00000KT 10SM CLR M01/M02 A3038 RMK AO2 SLP294 T10061022

KOKC Airport Info (Airnav.com)

KOKC Flight Activity (Flightaware)

Listeners: 0 out of 1388 total

Oke City Approach/Departure: 124.600

Feed sponsored by LiveATC and Russ Roslewski, CFI

KOKC ATIS (Archives)
Oklahoma City, Oklahoma, United States

Feed Status: UP
Listen in your browser - HTML5 player(in browser, HTML5)
Listen right in your browser(in browser, requires Flash)
Click here to listen with your own player(launches your MP3 player)

KOKC 201352Z 00000KT 10SM CLR M01/M02 A3038 RMK AO2 SLP294 T10061022

KOKC Airport Info (Airnav.com)

KOKC Flight Activity (Flightaware)

Listeners: 0 out of 1388 total

Rogers ATIS: 125.850

KOKC Clearance Delivery (Archives)
Oklahoma City, Oklahoma, United States

Feed Status: UP
Listen in your browser - HTML5 player(in browser, HTML5)
Listen right in your browser(in browser, requires Flash)
Click here to listen with your own player(launches your MP3 player)

KOKC 201352Z 00000KT 10SM CLR M01/M02 A3038 RMK AO2 SLP294 T10061022

KOKC Airport Info (Airnav.com)

KOKC Flight Activity (Flightaware)

Listeners: 0 out of 1388 total

Rogers Clearance Delivery: 124.350

Feed sponsored by LiveATC and Russ Roslewski, CFI

KOKC Emergency/Guard (Archives)
Oklahoma City, Oklahoma, United States

Feed Status: UP
Listen in your browser - HTML5 player(in browser, HTML5)
Listen right in your browser(in browser, requires Flash)
Click here to listen with your own player(launches your MP3 player)

KOKC 201352Z 00000KT 10SM CLR M01/M02 A3038 RMK AO2 SLP294 T10061022

KOKC Airport Info (Airnav.com)

KOKC Flight Activity (Flightaware)

Listeners: 0 out of 1388 total

Emergency/Guard: 121.500

KOKC Ground (Archives)
Oklahoma City, Oklahoma, United States

Feed Status: UP
Listen in your browser - HTML5 player(in browser, HTML5)
Listen right in your browser(in browser, requires Flash)
Click here to listen with your own player(launches your MP3 player)

KOKC 201352Z 00000KT 10SM CLR M01/M02 A3038 RMK AO2 SLP294 T10061022

KOKC Airport Info (Airnav.com)

KOKC Flight Activity (Flightaware)

Listeners: 0 out of 1388 total

Rogers Ground: 121.900

KOKC Tower (Archives)
Oklahoma City, Oklahoma, United States

Feed Status: UP
Listen in your browser - HTML5 player(in browser, HTML5)
Listen right in your browser(in browser, requires Flash)
Click here to listen with your own player(launches your MP3 player)

KOKC 201352Z 00000KT 10SM CLR M01/M02 A3038 RMK AO2 SLP294 T10061022

KOKC Airport Info (Airnav.com)

KOKC Flight Activity (Flightaware)

Listeners: 0 out of 1388 total

Rogers Tower: 119.350
Rogers Tower: 120.250
Rogers Tower (UHF): 269.450

Feed sponsored by LiveATC and Russ Roslewski, CFI

KOMA Del/Gnd/Twr (Archives)
Omaha, Nebraska, United States

Feed Status: UP
Listen in your browser - HTML5 player(in browser, HTML5)
Listen right in your browser(in browser, requires Flash)
Click here to listen with your own player(launches your MP3 player)

KOMA 201352Z 16008KT 10SM OVC037 M07/M10 A3031 RMK AO2 SLP279 T10721100

KOMA Airport Info (Airnav.com)

KOMA Flight Activity (Flightaware)

Listeners: 4 out of 1388 total

Omaha Clearance Delivery: 119.900
Omaha Ground: 121.900
Omaha Tower: 132.100

Sponsored by:
Nebraska Flight Center and LiveATC.net

KORF ATIS (Archives)
Norfolk, Virginia, United States

Feed Status: UP
Listen in your browser - HTML5 player(in browser, HTML5)
Listen right in your browser(in browser, requires Flash)
Click here to listen with your own player(launches your MP3 player)

KORF 201351Z 24008KT 10SM BKN065 OVC075 13/11 A2993 RMK AO2 SLP136 T01330111

KORF Airport Info (Airnav.com)

KORF Flight Activity (Flightaware)

Listeners: 0 out of 1388 total

Norfolk ATIS: 127.150

KORF Gnd/Twr/App/Radar (Archives)
Norfolk, Virginia, United States

Feed Status: UP
Listen in your browser - HTML5 player(in browser, HTML5)
Listen right in your browser(in browser, requires Flash)
Click here to listen with your own player(launches your MP3 player)

KORF 201351Z 24008KT 10SM BKN065 OVC075 13/11 A2993 RMK AO2 SLP136 T01330111

KORF Airport Info (Airnav.com)

KORF Flight Activity (Flightaware)

Listeners: 0 out of 1388 total

Norfolk Approach: 119.450
Norfolk Approach: 353.700
Norfolk Approach: 118.900
Norfolk Approach: 335.625
Norfolk Approach/Departure: 127.900
Norfolk Approach/Departure: 126.050
Norfolk Approach/Departure (Discrete): 128.050
Norfolk Approach/Departure (East): 370.925
Norfolk Approach/Departure (West): 360.600
Norfolk Clearance Delivery: 118.500
Norfolk Departure: 125.200
Norfolk Departure: 379.100
Norfolk Departure: 363.125
Norfolk Ground: 121.900
Norfolk Ground (alternate): 123.950
Norfolk Radar: 266.800
Norfolk Radar: 119.600
Norfolk Radar: 124.825
Norfolk Radar: 288.300
Norfolk Tower: 120.800
Norfolk Tower: 257.800

KPDX Gnd/Twr/App (Archives)
Portland, Oregon, United States

Feed Status: UP
Listen in your browser - HTML5 player(in browser, HTML5)
Listen right in your browser(in browser, requires Flash)
Click here to listen with your own player(launches your MP3 player)

KPDX 201353Z 00000KT 10SM CLR 04/01 A3002 RMK AO2 SLP166 T00390011

KPDX Airport Info (Airnav.com)

KPDX Flight Activity (Flightaware)

Listeners: 0 out of 1388 total

Emergency (Guard): 121.500
Portland Approach (100-279 deg): 126.900
Portland Approach (100-279 deg): 118.100
Portland Approach (280-099 deg): 124.350
Portland Ground: 121.900
Portland Tower: 118.700
Portland Tower: 119.000
Portland Tower: 123.775

KPDX Ground/Tower (Archives)
Portland, Oregon, United States

Feed Status: UP
Listen in your browser - HTML5 player(in browser, HTML5)
Listen right in your browser(in browser, requires Flash)
Click here to listen with your own player(launches your MP3 player)

KPDX 201353Z 00000KT 10SM CLR 04/01 A3002 RMK AO2 SLP166 T00390011

KPDX Airport Info (Airnav.com)

KPDX Flight Activity (Flightaware)

Listeners: 0 out of 1388 total

Emergency (Guard): 121.500
Portland Ground: 121.900
Portland Tower: 118.700
Portland Tower: 123.775
Portland Tower: 119.000

KPDX Portland Approach (Archives)
Portland, Oregon, United States

Feed Status: UP
Listen in your browser - HTML5 player(in browser, HTML5)
Listen right in your browser(in browser, requires Flash)
Click here to listen with your own player(launches your MP3 player)

KPDX 201353Z 00000KT 10SM CLR 04/01 A3002 RMK AO2 SLP166 T00390011

KPDX Airport Info (Airnav.com)

KPDX Flight Activity (Flightaware)

Listeners: 1 out of 1388 total

Portland Approach (100-279 deg): 118.100
Portland Approach (100-279 deg): 126.900
Portland Approach (280-099 deg): 124.350

KPIA Approach (North)
Peoria, Illinois, United States

Feed Status: DOWN
Offline since: 2018-11-08 14:13:03 UTC

KPIA 201354Z 30005KT 10SM CLR M03/M07 A3029 RMK AO2 SLP266 T10281067

KPIA Airport Info (Airnav.com)

Peoria Approach/Departure (North): 125.800

KPIA Approach (South)
Peoria, Illinois, United States

Feed Status: DOWN
Offline since: 2018-11-08 14:13:03 UTC

KPIA 201354Z 30005KT 10SM CLR M03/M07 A3029 RMK AO2 SLP266 T10281067

KPIA Airport Info (Airnav.com)

Peoria Approach/Departure (South): 124.675

KPIA Approach/Departure
Peoria, Illinois, United States

Feed Status: DOWN
Offline since: 2018-11-08 14:13:03 UTC

KPIA 201354Z 30005KT 10SM CLR M03/M07 A3029 RMK AO2 SLP266 T10281067

KPIA Airport Info (Airnav.com)

Peoria Approach/Departure (North): 125.800
Peoria Approach/Departure (South): 124.675

KPIA Area Guard
Peoria, Illinois, United States

Feed Status: DOWN
Offline since: 2018-11-08 14:13:03 UTC

KPIA 201354Z 30005KT 10SM CLR M03/M07 A3029 RMK AO2 SLP266 T10281067

KPIA Airport Info (Airnav.com)

Emergency/Guard: 121.500

KPIA ATIS
Peoria, Illinois, United States

Feed Status: DOWN
Offline since: 2018-11-08 14:13:03 UTC

KPIA 201354Z 30005KT 10SM CLR M03/M07 A3029 RMK AO2 SLP266 T10281067

KPIA Airport Info (Airnav.com)

Peoria ATIS/AWOS: 126.100

KPIA Ground
Peoria, Illinois, United States

Feed Status: DOWN
Offline since: 2018-11-08 14:13:03 UTC

KPIA 201354Z 30005KT 10SM CLR M03/M07 A3029 RMK AO2 SLP266 T10281067

KPIA Airport Info (Airnav.com)

Peoria Ground: 121.850

KPIA Ground/Tower
Peoria, Illinois, United States

Feed Status: DOWN
Offline since: 2018-11-08 14:13:03 UTC

KPIA 201354Z 30005KT 10SM CLR M03/M07 A3029 RMK AO2 SLP266 T10281067

KPIA Airport Info (Airnav.com)

Peoria Ground: 121.850
Peoria Tower: 124.000

KPIA Tower
Peoria, Illinois, United States

Feed Status: DOWN
Offline since: 2018-11-08 14:13:03 UTC

KPIA 201354Z 30005KT 10SM CLR M03/M07 A3029 RMK AO2 SLP266 T10281067

KPIA Airport Info (Airnav.com)

Peoria Tower: 124.000

KPVD Approach/Departure (Archives)
Providence, Rhode Island, United States

Feed Status: UP
Listen in your browser - HTML5 player(in browser, HTML5)
Listen right in your browser(in browser, requires Flash)
Click here to listen with your own player(launches your MP3 player)

KPVD 201351Z 34006KT 3SM -RA BR OVC005 04/03 A2986 RMK AO2 DZE1252RAB1252 SLP113 P0001 T00390033

KPVD Airport Info (Airnav.com)

KPVD Flight Activity (Flightaware)

Listeners: 0 out of 1388 total

Emergency/Guard: 121.500
Providence Approach: 127.900
Providence Approach (GROTON Sector): 119.450
Providence Approach (JUMPR Sector): 125.750
Providence Approach (New Bedford Sector): 128.700
Providence Approach/Departure (RHODY Sector): 123.675

KPVD ATIS (Archives)
Providence, Rhode Island, United States

Feed Status: UP
Listen in your browser - HTML5 player(in browser, HTML5)
Listen right in your browser(in browser, requires Flash)
Click here to listen with your own player(launches your MP3 player)

KPVD 201351Z 34006KT 3SM -RA BR OVC005 04/03 A2986 RMK AO2 DZE1252RAB1252 SLP113 P0001 T00390033

KPVD Airport Info (Airnav.com)

KPVD Flight Activity (Flightaware)

Listeners: 0 out of 1388 total

Providence ATIS: 124.200

KPVD Clearance Delivery (Archives)
Providence, Rhode Island, United States

Feed Status: UP
Listen in your browser - HTML5 player(in browser, HTML5)
Listen right in your browser(in browser, requires Flash)
Click here to listen with your own player(launches your MP3 player)

KPVD 201351Z 34006KT 3SM -RA BR OVC005 04/03 A2986 RMK AO2 DZE1252RAB1252 SLP113 P0001 T00390033

KPVD Airport Info (Airnav.com)

KPVD Flight Activity (Flightaware)

Listeners: 0 out of 1388 total

Providence Clearance Delivery: 126.650

KPVD Gnd/Twr (Archives)
Providence, Rhode Island, United States

Feed Status: UP
Listen in your browser - HTML5 player(in browser, HTML5)
Listen right in your browser(in browser, requires Flash)
Click here to listen with your own player(launches your MP3 player)

KPVD 201351Z 34006KT 3SM -RA BR OVC005 04/03 A2986 RMK AO2 DZE1252RAB1252 SLP113 P0001 T00390033

KPVD Airport Info (Airnav.com)

KPVD Flight Activity (Flightaware)

Listeners: 0 out of 1388 total

Providence Ground: 121.900
Providence Tower: 120.700

KPVD Gnd/Twr/App (Archives)
Providence, Rhode Island, United States

Feed Status: UP
Listen in your browser - HTML5 player(in browser, HTML5)
Listen right in your browser(in browser, requires Flash)
Click here to listen with your own player(launches your MP3 player)

KPVD 201351Z 34006KT 3SM -RA BR OVC005 04/03 A2986 RMK AO2 DZE1252RAB1252 SLP113 P0001 T00390033

KPVD Airport Info (Airnav.com)

KPVD Flight Activity (Flightaware)

Listeners: 0 out of 1388 total

Providence Approach: 127.900
Providence Approach (GROTON Sector): 119.450
Providence Approach (JUMPR Sector): 125.750
Providence Approach (New Bedford Sector): 128.700
Providence Approach/Departure (RHODY Sector): 123.675
Providence Ground: 121.900
Providence Tower: 120.700

KPWM Approach/Departure (Archives)
Portland, Maine, United States

Feed Status: UP
Listen in your browser - HTML5 player(in browser, HTML5)
Listen right in your browser(in browser, requires Flash)
Click here to listen with your own player(launches your MP3 player)

KPWM 201409Z 06010KT 3/4SM -SN BR BKN006 OVC010 01/00 A2995 RMK AO2 P0001 T00060000

KPWM Airport Info (Airnav.com)

KPWM Flight Activity (Flightaware)

Listeners: 0 out of 1388 total

Portland Approach (North): 125.500
Portland Approach (South): 119.750

KPWM Gnd/Tower (Archives)
Portland, Maine, United States

Feed Status: UP
Listen in your browser - HTML5 player(in browser, HTML5)
Listen right in your browser(in browser, requires Flash)
Click here to listen with your own player(launches your MP3 player)

KPWM 201409Z 06010KT 3/4SM -SN BR BKN006 OVC010 01/00 A2995 RMK AO2 P0001 T00060000

KPWM Airport Info (Airnav.com)

KPWM Flight Activity (Flightaware)

Listeners: 1 out of 1388 total

Portland Clearance Delivery: 121.900
Portland Ground: 121.900
Portland Tower: 120.900

KPWM Gnd/Twr/App (Archives)
Portland, Maine, United States

Feed Status: UP
Listen in your browser - HTML5 player(in browser, HTML5)
Listen right in your browser(in browser, requires Flash)
Click here to listen with your own player(launches your MP3 player)

KPWM 201409Z 06010KT 3/4SM -SN BR BKN006 OVC010 01/00 A2995 RMK AO2 P0001 T00060000

KPWM Airport Info (Airnav.com)

KPWM Flight Activity (Flightaware)

Listeners: 0 out of 1388 total

Portland Approach (North): 125.500
Portland Approach (South): 119.750
Portland Clearance Delivery: 121.900
Portland Ground: 121.900
Portland Tower: 120.900

KRDU Approach (Archives)
Raleigh/Durham, North Carolina, United States

Feed Status: UP
Listen in your browser - HTML5 player(in browser, HTML5)
Listen right in your browser(in browser, requires Flash)
Click here to listen with your own player(launches your MP3 player)

KRDU 201351Z 24004KT 10SM BKN065 BKN110 BKN250 11/10 A2999 RMK AO2 SLP153 T01110100

KRDU Airport Info (Airnav.com)

KRDU Flight Activity (Flightaware)

Listeners: 1 out of 1388 total

Raleigh Approach: 124.950
Raleigh Approach: 128.300

KRDU Approach/Departure (Archives)
Raleigh/Durham, North Carolina, United States

Feed Status: UP
Listen in your browser - HTML5 player(in browser, HTML5)
Listen right in your browser(in browser, requires Flash)
Click here to listen with your own player(launches your MP3 player)

KRDU 201351Z 24004KT 10SM BKN065 BKN110 BKN250 11/10 A2999 RMK AO2 SLP153 T01110100

KRDU Airport Info (Airnav.com)

KRDU Flight Activity (Flightaware)

Listeners: 2 out of 1388 total

Raleigh Approach: 124.950
Raleigh Approach: 128.300
Raleigh Departure: 125.300
Raleigh Departure: 132.350

KRDU Departure (Archives)
Raleigh/Durham, North Carolina, United States

Feed Status: UP
Listen in your browser - HTML5 player(in browser, HTML5)
Listen right in your browser(in browser, requires Flash)
Click here to listen with your own player(launches your MP3 player)

KRDU 201351Z 24004KT 10SM BKN065 BKN110 BKN250 11/10 A2999 RMK AO2 SLP153 T01110100

KRDU Airport Info (Airnav.com)

KRDU Flight Activity (Flightaware)

Listeners: 0 out of 1388 total

Raleigh Departure: 132.350
Raleigh Departure: 125.300

KRDU Tower (Archives)
Raleigh/Durham, North Carolina, United States

Feed Status: UP
Listen in your browser - HTML5 player(in browser, HTML5)
Listen right in your browser(in browser, requires Flash)
Click here to listen with your own player(launches your MP3 player)

KRDU 201351Z 24004KT 10SM BKN065 BKN110 BKN250 11/10 A2999 RMK AO2 SLP153 T01110100

KRDU Airport Info (Airnav.com)

KRDU Flight Activity (Flightaware)

Listeners: 0 out of 1388 total

Raleigh Tower (East: Rwys 05R/23L, 14/32): 127.450
Raleigh Tower (East: Rwys 05R/23L, 14/32): 127.450
Raleigh Tower (West: Rwy 05L/23R): 119.300
Raleigh Tower (West: Rwy 05L/23R): 119.300

KRIC Approach/Departure (Archives)
Richmond, Virginia, United States

Feed Status: UP
Listen in your browser - HTML5 player(in browser, HTML5)
Listen right in your browser(in browser, requires Flash)
Click here to listen with your own player(launches your MP3 player)

KRIC 201354Z 27004KT 9SM FEW055 BKN090 11/09 A2994 RMK AO2 SLP143 T01110089

KRIC Airport Info (Airnav.com)

KRIC Flight Activity (Flightaware)

Listeners: 0 out of 1388 total

Potomac Approach (Richmond): 126.400
Potomac Approach (Richmond): 126.800
Potomac Approach (Richmond): 118.200
Potomac Approach (Richmond): 126.750

KRIC Del/Gnd/Twr (Archives)
Richmond, Virginia, United States

Feed Status: UP
Listen in your browser - HTML5 player(in browser, HTML5)
Listen right in your browser(in browser, requires Flash)
Click here to listen with your own player(launches your MP3 player)

KRIC 201354Z 27004KT 9SM FEW055 BKN090 11/09 A2994 RMK AO2 SLP143 T01110089

KRIC Airport Info (Airnav.com)

KRIC Flight Activity (Flightaware)

Listeners: 0 out of 1388 total

Richmond Ground: 121.900
Richmond Tower: 121.100
Richond Clearance: 127.550

KRIC Del/Gnd/Twr/App (Archives)
Richmond, Virginia, United States

Feed Status: UP
Listen in your browser - HTML5 player(in browser, HTML5)
Listen right in your browser(in browser, requires Flash)
Click here to listen with your own player(launches your MP3 player)

KRIC 201354Z 27004KT 9SM FEW055 BKN090 11/09 A2994 RMK AO2 SLP143 T01110089

KRIC Airport Info (Airnav.com)

KRIC Flight Activity (Flightaware)

Listeners: 0 out of 1388 total

Potomac Approach (Richmond): 126.400
Potomac Approach (Richmond): 126.800
Potomac Approach (Richmond): 118.200
Richmond Ground: 121.900
Richmond Tower: 121.100
Richond Clearance: 127.550

KRNO Clearance Delivery (Archives)
Reno, Nevada, United States

Feed Status: UP
Listen in your browser - HTML5 player(in browser, HTML5)
Listen right in your browser(in browser, requires Flash)
Click here to listen with your own player(launches your MP3 player)

KRNO 201355Z 00000KT 10SM CLR M04/M10 A3016 RMK AO2 SLP222 T10441100 $

KRNO Airport Info (Airnav.com)

KRNO Flight Activity (Flightaware)

Listeners: 0 out of 1388 total

Reno Clearance Delivery: 124.900

KRNO Del/Gnd/Twr (Archives)
Reno, Nevada, United States

Feed Status: UP
Listen in your browser - HTML5 player(in browser, HTML5)
Listen right in your browser(in browser, requires Flash)
Click here to listen with your own player(launches your MP3 player)

KRNO 201355Z 00000KT 10SM CLR M04/M10 A3016 RMK AO2 SLP222 T10441100 $

KRNO Airport Info (Airnav.com)

KRNO Flight Activity (Flightaware)

Listeners: 0 out of 1388 total

Reno Clearance Delivery: 124.900
Reno Ground: 121.900
Reno Tower: 118.700

KRNO Del/Gnd/Twr (Archives)
Reno, Nevada, United States

Feed Status: UP
Listen in your browser - HTML5 player(in browser, HTML5)
Listen right in your browser(in browser, requires Flash)
Click here to listen with your own player(launches your MP3 player)

KRNO 201355Z 00000KT 10SM CLR M04/M10 A3016 RMK AO2 SLP222 T10441100 $

KRNO Airport Info (Airnav.com)

KRNO Flight Activity (Flightaware)

Listeners: 0 out of 1388 total

Reno Clearance Delivery: 124.900
Reno Ground: 121.900
Reno Tower: 118.700

KRNO Del/Gnd/Twr/App/ZOA (Archives)
Reno, Nevada, United States

Feed Status: UP
Listen in your browser - HTML5 player(in browser, HTML5)
Listen right in your browser(in browser, requires Flash)
Click here to listen with your own player(launches your MP3 player)

KRNO 201355Z 00000KT 10SM CLR M04/M10 A3016 RMK AO2 SLP222 T10441100 $

KRNO Airport Info (Airnav.com)

KRNO Flight Activity (Flightaware)

Listeners: 1 out of 1388 total

Emergency/Guard: 121.500
NORCAL Approach (Reno North): 126.300
NORCAL Approach (Reno South): 119.200
Oakland Center (Zone 45, Lo): 128.800
Reno Clearance Delivery: 124.900
Reno Ground: 121.900
Reno Tower: 118.700

KRNO Emergency/Guard (Archives)
Reno, Nevada, United States

Feed Status: UP
Listen in your browser - HTML5 player(in browser, HTML5)
Listen right in your browser(in browser, requires Flash)
Click here to listen with your own player(launches your MP3 player)

KRNO 201355Z 00000KT 10SM CLR M04/M10 A3016 RMK AO2 SLP222 T10441100 $

KRNO Airport Info (Airnav.com)

KRNO Flight Activity (Flightaware)

Listeners: 0 out of 1388 total

Emergency/Guard: 121.500

KRNO Ground (Archives)
Reno, Nevada, United States

Feed Status: UP
Listen in your browser - HTML5 player(in browser, HTML5)
Listen right in your browser(in browser, requires Flash)
Click here to listen with your own player(launches your MP3 player)

KRNO 201355Z 00000KT 10SM CLR M04/M10 A3016 RMK AO2 SLP222 T10441100 $

KRNO Airport Info (Airnav.com)

KRNO Flight Activity (Flightaware)

Listeners: 0 out of 1388 total

Reno Ground: 121.900

KRNO Ground/Tower (Archives)
Reno, Nevada, United States

Feed Status: UP
Listen in your browser - HTML5 player(in browser, HTML5)
Listen right in your browser(in browser, requires Flash)
Click here to listen with your own player(launches your MP3 player)

KRNO 201355Z 00000KT 10SM CLR M04/M10 A3016 RMK AO2 SLP222 T10441100 $

KRNO Airport Info (Airnav.com)

KRNO Flight Activity (Flightaware)

Listeners: 0 out of 1388 total

Reno Ground: 121.900
Reno Tower: 118.700

KRNO NORCAL App/Dep (Archives)
Reno, Nevada, United States

Feed Status: UP
Listen in your browser - HTML5 player(in browser, HTML5)
Listen right in your browser(in browser, requires Flash)
Click here to listen with your own player(launches your MP3 player)

KRNO 201355Z 00000KT 10SM CLR M04/M10 A3016 RMK AO2 SLP222 T10441100 $

KRNO Airport Info (Airnav.com)

KRNO Flight Activity (Flightaware)

Listeners: 0 out of 1388 total

NORCAL Approach (Reno North): 126.300
NORCAL Approach (Reno South): 119.200

KRNO NORCAL App/Dep (North) (Archives)
Reno, Nevada, United States

Feed Status: UP
Listen in your browser - HTML5 player(in browser, HTML5)
Listen right in your browser(in browser, requires Flash)
Click here to listen with your own player(launches your MP3 player)

KRNO 201355Z 00000KT 10SM CLR M04/M10 A3016 RMK AO2 SLP222 T10441100 $

KRNO Airport Info (Airnav.com)

KRNO Flight Activity (Flightaware)

Listeners: 0 out of 1388 total

NORCAL Approach (Reno North): 126.300

KRNO NORCAL App/Dep (South) (Archives)
Reno, Nevada, United States

Feed Status: UP
Listen in your browser - HTML5 player(in browser, HTML5)
Listen right in your browser(in browser, requires Flash)
Click here to listen with your own player(launches your MP3 player)

KRNO 201355Z 00000KT 10SM CLR M04/M10 A3016 RMK AO2 SLP222 T10441100 $

KRNO Airport Info (Airnav.com)

KRNO Flight Activity (Flightaware)

Listeners: 0 out of 1388 total

NORCAL Approach (Reno South): 119.200

KRNO Tower (Archives)
Reno, Nevada, United States

Feed Status: UP
Listen in your browser - HTML5 player(in browser, HTML5)
Listen right in your browser(in browser, requires Flash)
Click here to listen with your own player(launches your MP3 player)

KRNO 201355Z 00000KT 10SM CLR M04/M10 A3016 RMK AO2 SLP222 T10441100 $

KRNO Airport Info (Airnav.com)

KRNO Flight Activity (Flightaware)

Listeners: 0 out of 1388 total

Reno Tower: 118.700

KROA App/Dep #1 (Archives)
Roanoke, Virginia, United States

Feed Status: UP
Listen in your browser - HTML5 player(in browser, HTML5)
Listen right in your browser(in browser, requires Flash)
Click here to listen with your own player(launches your MP3 player)

KROA 201354Z 29011G20KT 10SM FEW041 11/02 A3001 RMK AO2 RAE00 SLP162 P0000 T01060022

KROA Airport Info (Airnav.com)

KROA Flight Activity (Flightaware)

Listeners: 0 out of 1388 total

Roanoke Approach: 118.150
Roanoke Approach: 126.900

KROA App/Dep #2 (Archives)
Roanoke, Virginia, United States

Feed Status: UP
Listen in your browser - HTML5 player(in browser, HTML5)
Listen right in your browser(in browser, requires Flash)
Click here to listen with your own player(launches your MP3 player)

KROA 201354Z 29011G20KT 10SM FEW041 11/02 A3001 RMK AO2 RAE00 SLP162 P0000 T01060022

KROA Airport Info (Airnav.com)

KROA Flight Activity (Flightaware)

Listeners: 0 out of 1388 total

Roanoke Approach: 118.150
Roanoke Approach: 126.900

Feed sponsored by LiveATC.net and Star Flight Training

KROA ATIS (Archives)
Roanoke, Virginia, United States

Feed Status: UP
Listen in your browser - HTML5 player(in browser, HTML5)
Listen right in your browser(in browser, requires Flash)
Click here to listen with your own player(launches your MP3 player)

KROA 201354Z 29011G20KT 10SM FEW041 11/02 A3001 RMK AO2 RAE00 SLP162 P0000 T01060022

KROA Airport Info (Airnav.com)

KROA Flight Activity (Flightaware)

Listeners: 0 out of 1388 total

Roanoke ATIS: 132.375

Feed sponsored by LiveATC.net and Star Flight Training

KROA Del/Gnd (Archives)
Roanoke, Virginia, United States

Feed Status: UP
Listen in your browser - HTML5 player(in browser, HTML5)
Listen right in your browser(in browser, requires Flash)
Click here to listen with your own player(launches your MP3 player)

KROA 201354Z 29011G20KT 10SM FEW041 11/02 A3001 RMK AO2 RAE00 SLP162 P0000 T01060022

KROA Airport Info (Airnav.com)

KROA Flight Activity (Flightaware)

Listeners: 0 out of 1388 total

Roanoke Clearance Delivery: 119.700
Roanoke Ground: 121.900

Feed sponsored by LiveATC.net and Star Flight Training

KROA Gnd/Twr (Archives)
Roanoke, Virginia, United States

Feed Status: UP
Listen in your browser - HTML5 player(in browser, HTML5)
Listen right in your browser(in browser, requires Flash)
Click here to listen with your own player(launches your MP3 player)

KROA 201354Z 29011G20KT 10SM FEW041 11/02 A3001 RMK AO2 RAE00 SLP162 P0000 T01060022

KROA Airport Info (Airnav.com)

KROA Flight Activity (Flightaware)

Listeners: 0 out of 1388 total

Roanoke Ground: 121.900
Roanoke Tower: 118.300

KROA Gnd/Twr/App (Archives)
Roanoke, Virginia, United States

Feed Status: UP
Listen in your browser - HTML5 player(in browser, HTML5)
Listen right in your browser(in browser, requires Flash)
Click here to listen with your own player(launches your MP3 player)

KROA 201354Z 29011G20KT 10SM FEW041 11/02 A3001 RMK AO2 RAE00 SLP162 P0000 T01060022

KROA Airport Info (Airnav.com)

KROA Flight Activity (Flightaware)

Listeners: 0 out of 1388 total

Roanoke Approach: 126.900
Roanoke Approach: 118.150
Roanoke Ground: 121.900
Roanoke Tower: 118.300

KROA Tower (Archives)
Roanoke, Virginia, United States

Feed Status: UP
Listen in your browser - HTML5 player(in browser, HTML5)
Listen right in your browser(in browser, requires Flash)
Click here to listen with your own player(launches your MP3 player)

KROA 201354Z 29011G20KT 10SM FEW041 11/02 A3001 RMK AO2 RAE00 SLP162 P0000 T01060022

KROA Airport Info (Airnav.com)

KROA Flight Activity (Flightaware)

Listeners: 0 out of 1388 total

Roanoke Tower: 118.300

Feed sponsored by LiveATC.net and Star Flight Training

KROC Delivery/Ground
Rochester, New York, United States

Feed Status: DOWN
Offline since: 2018-11-20 14:30:04 UTC

KROC 201354Z 25005KT 1 1/2SM -SN BR BKN026 OVC037 01/00 A2994 RMK AO2 SLP146 P0001 T00060000

KROC Airport Info (Airnav.com)

Rochester Clearance Delivery: 118.800
Rochester Ground: 121.700

KROC Tower/Approach (Archives)
Rochester, New York, United States

Feed Status: UP
Listen in your browser - HTML5 player(in browser, HTML5)
Listen right in your browser(in browser, requires Flash)
Click here to listen with your own player(launches your MP3 player)

KROC 201354Z 25005KT 1 1/2SM -SN BR BKN026 OVC037 01/00 A2994 RMK AO2 SLP146 P0001 T00060000

KROC Airport Info (Airnav.com)

KROC Flight Activity (Flightaware)

Listeners: 0 out of 1388 total

Rochester Approach: 119.550
Rochester Approach: 123.700
Rochester Tower: 118.300

KSAT Approach (Archives)
San Antonio, Texas, United States

Feed Status: UP
Listen in your browser - HTML5 player(in browser, HTML5)
Listen right in your browser(in browser, requires Flash)
Click here to listen with your own player(launches your MP3 player)

KSAT 201351Z 36008KT 10SM CLR 08/02 A3034 RMK AO2 SLP266 T00830022

KSAT Airport Info (Airnav.com)

KSAT Flight Activity (Flightaware)

Listeners: 3 out of 1388 total

San Antonio Approach/Departure: 127.100
San Antonio Approach/Departure: 125.700
San Antonio Approach/Departure (091-140): 128.050
San Antonio Approach/Departure (141-270): 118.050
San Antonio Approach/Departure (271-359): 125.100
San Antonio Approach/Departure (360-090): 124.450

KSAT Ground (Archives)
San Antonio, Texas, United States

Feed Status: UP
Listen in your browser - HTML5 player(in browser, HTML5)
Listen right in your browser(in browser, requires Flash)
Click here to listen with your own player(launches your MP3 player)

KSAT 201351Z 36008KT 10SM CLR 08/02 A3034 RMK AO2 SLP266 T00830022

KSAT Airport Info (Airnav.com)

KSAT Flight Activity (Flightaware)

Listeners: 0 out of 1388 total

San Antonio Ground: 121.900

KSAT Tower (Archives)
San Antonio, Texas, United States

Feed Status: UP
Listen in your browser - HTML5 player(in browser, HTML5)
Listen right in your browser(in browser, requires Flash)
Click here to listen with your own player(launches your MP3 player)

KSAT 201351Z 36008KT 10SM CLR 08/02 A3034 RMK AO2 SLP266 T00830022

KSAT Airport Info (Airnav.com)

KSAT Flight Activity (Flightaware)

Listeners: 0 out of 1388 total

San Antonio Tower: 119.800

KSBA App/Dep (Archives)
Santa Barbara, California, United States

Feed Status: UP
Listen in your browser - HTML5 player(in browser, HTML5)
Listen right in your browser(in browser, requires Flash)
Click here to listen with your own player(launches your MP3 player)

KSBA 201353Z 00000KT 7SM CLR 08/07 A2999 RMK AO2 SLP156 T00830072 $

KSBA Airport Info (Airnav.com)

KSBA Flight Activity (Flightaware)

Listeners: 0 out of 1388 total

Santa Barbara Approach/Departure: 125.400
Santa Barbara Approach/Departure: 124.150
Santa Barbara Approach/Departure: 120.550

Feed sponsored by: Above All Aviation

KSBA App/Dep (120.55) (Archives)
Santa Barbara, California, United States

Feed Status: UP
Listen in your browser - HTML5 player(in browser, HTML5)
Listen right in your browser(in browser, requires Flash)
Click here to listen with your own player(launches your MP3 player)

KSBA 201353Z 00000KT 7SM CLR 08/07 A2999 RMK AO2 SLP156 T00830072 $

KSBA Airport Info (Airnav.com)

KSBA Flight Activity (Flightaware)

Listeners: 0 out of 1388 total

Santa Barbara Approach/Departure: 120.550

Feed sponsored by: Santa Barbara Amateur Radio Club

KSBA App/Dep (124.15) (Archives)
Santa Barbara, California, United States

Feed Status: UP
Listen in your browser - HTML5 player(in browser, HTML5)
Listen right in your browser(in browser, requires Flash)
Click here to listen with your own player(launches your MP3 player)

KSBA 201353Z 00000KT 7SM CLR 08/07 A2999 RMK AO2 SLP156 T00830072 $

KSBA Airport Info (Airnav.com)

KSBA Flight Activity (Flightaware)

Listeners: 0 out of 1388 total

Santa Barbara Approach/Departure: 124.150

Feed sponsored by: Santa Barbara Amateur Radio Club

KSBA App/Dep (125.4) (Archives)
Santa Barbara, California, United States

Feed Status: UP
Listen in your browser - HTML5 player(in browser, HTML5)
Listen right in your browser(in browser, requires Flash)
Click here to listen with your own player(launches your MP3 player)

KSBA 201353Z 00000KT 7SM CLR 08/07 A2999 RMK AO2 SLP156 T00830072 $

KSBA Airport Info (Airnav.com)

KSBA Flight Activity (Flightaware)

Listeners: 0 out of 1388 total

Santa Barbara Approach/Departure: 125.400

Feed sponsored by: Santa Barbara Amateur Radio Club

KSBA Del/Ground (Archives)
Santa Barbara, California, United States

Feed Status: UP
Listen in your browser - HTML5 player(in browser, HTML5)
Listen right in your browser(in browser, requires Flash)
Click here to listen with your own player(launches your MP3 player)

KSBA 201353Z 00000KT 7SM CLR 08/07 A2999 RMK AO2 SLP156 T00830072 $

KSBA Airport Info (Airnav.com)

KSBA Flight Activity (Flightaware)

Listeners: 0 out of 1388 total

Santa Barbara Clearance Delivery: 132.900
Santa Barbara Ground: 121.700

Feed sponsored by: Above All Aviation

KSBA Emergency/Guard (Archives)
Santa Barbara, California, United States

Feed Status: UP
Listen in your browser - HTML5 player(in browser, HTML5)
Listen right in your browser(in browser, requires Flash)
Click here to listen with your own player(launches your MP3 player)

KSBA 201353Z 00000KT 7SM CLR 08/07 A2999 RMK AO2 SLP156 T00830072 $

KSBA Airport Info (Airnav.com)

KSBA Flight Activity (Flightaware)

Listeners: 0 out of 1388 total

Emergency/Guard: 121.500

Feed sponsored by: Santa Barbara Amateur Radio Club

KSBA Tower (Archives)
Santa Barbara, California, United States

Feed Status: UP
Listen in your browser - HTML5 player(in browser, HTML5)
Listen right in your browser(in browser, requires Flash)
Click here to listen with your own player(launches your MP3 player)

KSBA 201353Z 00000KT 7SM CLR 08/07 A2999 RMK AO2 SLP156 T00830072 $

KSBA Airport Info (Airnav.com)

KSBA Flight Activity (Flightaware)

Listeners: 0 out of 1388 total

Santa Barbara Tower: 119.700

Feed sponsored by: Above All Aviation
<

KSDF App/Dep #1 (Archives)
Louisville, Kentucky, United States

Feed Status: UP
Listen in your browser - HTML5 player(in browser, HTML5)
Listen right in your browser(in browser, requires Flash)
Click here to listen with your own player(launches your MP3 player)

KSDF 201412Z 27008KT 6SM HZ SCT012 OVC029 05/02 A3021 RMK AO2 T00500017

KSDF Airport Info (Airnav.com)

KSDF Flight Activity (Flightaware)

Listeners: 0 out of 1388 total

Louisville Approach/Departure: 132.075

KSDF App/Dep #2 (Archives)
Louisville, Kentucky, United States

Feed Status: UP
Listen in your browser - HTML5 player(in browser, HTML5)
Listen right in your browser(in browser, requires Flash)
Click here to listen with your own player(launches your MP3 player)

KSDF 201412Z 27008KT 6SM HZ SCT012 OVC029 05/02 A3021 RMK AO2 T00500017

KSDF Airport Info (Airnav.com)

KSDF Flight Activity (Flightaware)

Listeners: 0 out of 1388 total

Louisville Approach/Departure: 134.150

KSDF ATIS (Archives)
Louisville, Kentucky, United States

Feed Status: UP
Listen in your browser - HTML5 player(in browser, HTML5)
Listen right in your browser(in browser, requires Flash)
Click here to listen with your own player(launches your MP3 player)

KSDF 201412Z 27008KT 6SM HZ SCT012 OVC029 05/02 A3021 RMK AO2 T00500017

KSDF Airport Info (Airnav.com)

KSDF Flight Activity (Flightaware)

Listeners: 0 out of 1388 total

Louisville ATIS: 118.725

KSDF Ground/Tower #1 (Archives)
Louisville, Kentucky, United States

Feed Status: UP
Listen in your browser - HTML5 player(in browser, HTML5)
Listen right in your browser(in browser, requires Flash)
Click here to listen with your own player(launches your MP3 player)

KSDF 201412Z 27008KT 6SM HZ SCT012 OVC029 05/02 A3021 RMK AO2 T00500017

KSDF Airport Info (Airnav.com)

KSDF Flight Activity (Flightaware)

Listeners: 0 out of 1388 total

Louisville Ground: 121.700
Louisville Tower: 124.200

Feed sponsored by:

KSDF Thunder Over Louisville Air Show #2 (Archives)
Louisville, Kentucky, United States

Feed Status: UP
Listen in your browser - HTML5 player(in browser, HTML5)
Listen right in your browser(in browser, requires Flash)
Click here to listen with your own player(launches your MP3 player)

KSDF 201412Z 27008KT 6SM HZ SCT012 OVC029 05/02 A3021 RMK AO2 T00500017

KSDF Airport Info (Airnav.com)

KSDF Flight Activity (Flightaware)

Listeners: 0 out of 1388 total

Air Boss (VHF): 120.300
Air to Air: 126.850

KSFB ATIS (Archives)
Orlando, Florida, United States

Feed Status: UP
Listen in your browser - HTML5 player(in browser, HTML5)
Listen right in your browser(in browser, requires Flash)
Click here to listen with your own player(launches your MP3 player)

KSFB 201423Z 29011KT 1/2SM +TSRA FG OVC015 20/19 A3011 RMK AO2 TSB18 P0018 T02000189

KSFB Airport Info (Airnav.com)

KSFB Flight Activity (Flightaware)

Listeners: 0 out of 1388 total

Sanford ATIS: 125.975

Sponsored by:
South East Ramp and LiveATC.net

KSFB Clearance Delivery (Archives)
Orlando, Florida, United States

Feed Status: UP
Listen in your browser - HTML5 player(in browser, HTML5)
Listen right in your browser(in browser, requires Flash)
Click here to listen with your own player(launches your MP3 player)

KSFB 201423Z 29011KT 1/2SM +TSRA FG OVC015 20/19 A3011 RMK AO2 TSB18 P0018 T02000189

KSFB Airport Info (Airnav.com)

KSFB Flight Activity (Flightaware)

Listeners: 0 out of 1388 total

Sanford Clearance Delivery: 123.975

Sponsored by:
South East Ramp and LiveATC.net

KSFB Del/Gnd (Archives)
Orlando, Florida, United States

Feed Status: UP
Listen in your browser - HTML5 player(in browser, HTML5)
Listen right in your browser(in browser, requires Flash)
Click here to listen with your own player(launches your MP3 player)

KSFB 201423Z 29011KT 1/2SM +TSRA FG OVC015 20/19 A3011 RMK AO2 TSB18 P0018 T02000189

KSFB Airport Info (Airnav.com)

KSFB Flight Activity (Flightaware)

Listeners: 0 out of 1388 total

Sanford Clearance Delivery: 123.975
Sanford Ground: 121.350

Sponsored by:
South East Ramp and LiveATC.net

KSFB Ground (Archives)
Orlando, Florida, United States

Feed Status: UP
Listen in your browser - HTML5 player(in browser, HTML5)
Listen right in your browser(in browser, requires Flash)
Click here to listen with your own player(launches your MP3 player)

KSFB 201423Z 29011KT 1/2SM +TSRA FG OVC015 20/19 A3011 RMK AO2 TSB18 P0018 T02000189

KSFB Airport Info (Airnav.com)

KSFB Flight Activity (Flightaware)

Listeners: 0 out of 1388 total

Sanford Ground: 121.350

Sponsored by:
South East Ramp and LiveATC.net

KSFB Tower (Both) (Archives)
Orlando, Florida, United States

Feed Status: UP
Listen in your browser - HTML5 player(in browser, HTML5)
Listen right in your browser(in browser, requires Flash)
Click here to listen with your own player(launches your MP3 player)

KSFB 201423Z 29011KT 1/2SM +TSRA FG OVC015 20/19 A3011 RMK AO2 TSB18 P0018 T02000189

KSFB Airport Info (Airnav.com)

KSFB Flight Activity (Flightaware)

Listeners: 0 out of 1388 total

Sanford Tower (Runways 9L/27R, 18/36): 120.300
Sanford Tower (Runways 9R/27L, 9C/27C): 135.250

Sponsored by:
South East Ramp and LiveATC.net

KSFB Tower (Main) (Archives)
Orlando, Florida, United States

Feed Status: UP
Listen in your browser - HTML5 player(in browser, HTML5)
Listen right in your browser(in browser, requires Flash)
Click here to listen with your own player(launches your MP3 player)

KSFB 201423Z 29011KT 1/2SM +TSRA FG OVC015 20/19 A3011 RMK AO2 TSB18 P0018 T02000189

KSFB Airport Info (Airnav.com)

KSFB Flight Activity (Flightaware)

Listeners: 0 out of 1388 total

Sanford Tower (Runways 9L/27R, 18/36): 120.300

Sponsored by:
South East Ramp and LiveATC.net

KSFB Tower (South) (Archives)
Orlando, Florida, United States

Feed Status: UP
Listen in your browser - HTML5 player(in browser, HTML5)
Listen right in your browser(in browser, requires Flash)
Click here to listen with your own player(launches your MP3 player)

KSFB 201423Z 29011KT 1/2SM +TSRA FG OVC015 20/19 A3011 RMK AO2 TSB18 P0018 T02000189

KSFB Airport Info (Airnav.com)

KSFB Flight Activity (Flightaware)

Listeners: 0 out of 1388 total

Sanford Tower (Runways 9R/27L, 9C/27C): 135.250

Sponsored by:
South East Ramp and LiveATC.net

NORCAL Departure (KSFO/KOAK) (Archives)
San Francisco, California, United States

Feed Status: UP
Listen in your browser - HTML5 player(in browser, HTML5)
Listen right in your browser(in browser, requires Flash)
Click here to listen with your own player(launches your MP3 player)

KOAK 201353Z 07004KT 4SM HZ FU FEW019 06/03 A3000 RMK AO2 SLP157 FU FEW019 T00610028

KOAK Airport Info (Airnav.com)

KOAK Flight Activity (Flightaware)

Listeners: 4 out of 1388 total

NORCAL Departure (Northeast Departures): 120.900
NORCAL Departure (Northeast Departures): 127.000
NORCAL Departure (Southwest Departures): 127.975
NORCAL Departure (Southwest Departures): 135.100

NOTE: Southwest departures on left channel - Northeast Departures on right channel

KSGF Approach (Archives)
Springfield, Missouri, United States

Feed Status: UP
Listen in your browser - HTML5 player(in browser, HTML5)
Listen right in your browser(in browser, requires Flash)
Click here to listen with your own player(launches your MP3 player)

KSGF 201352Z 33007KT 10SM CLR M03/M05 A3033 RMK AO2 SLP280 T10281050

KSGF Airport Info (Airnav.com)

KSGF Flight Activity (Flightaware)

Listeners: 0 out of 1388 total

Springfield Approach: 121.100
Springfield Approach: 124.950
Springfield Approach: 126.350

KSGF Ground/Tower (Archives)
Springfield, Missouri, United States

Feed Status: UP
Listen in your browser - HTML5 player(in browser, HTML5)
Listen right in your browser(in browser, requires Flash)
Click here to listen with your own player(launches your MP3 player)

KSGF 201352Z 33007KT 10SM CLR M03/M05 A3033 RMK AO2 SLP280 T10281050

KSGF Airport Info (Airnav.com)

KSGF Flight Activity (Flightaware)

Listeners: 0 out of 1388 total

Springfield Ground: 121.900
Springfield Tower: 119.900

KSJC D-ATIS (Archives)
San Jose, California, United States

Feed Status: UP
Listen in your browser - HTML5 player(in browser, HTML5)
Listen right in your browser(in browser, requires Flash)
Click here to listen with your own player(launches your MP3 player)

KSJC 201353Z 00000KT 5SM HZ FEW001 SCT006 OVC020 06/02 A2999 RMK AO2 SLP155 FU FEW001 FU SCT006 FU OVC020 T00610017 $

KSJC Airport Info (Airnav.com)

KSJC Flight Activity (Flightaware)

Listeners: 0 out of 1388 total

San Jose D-ATIS: 126.950

KSJC Del/Gnd/Misc (Archives)
San Jose, California, United States

Feed Status: UP
Listen in your browser - HTML5 player(in browser, HTML5)
Listen right in your browser(in browser, requires Flash)
Click here to listen with your own player(launches your MP3 player)

KSJC 201353Z 00000KT 5SM HZ FEW001 SCT006 OVC020 06/02 A2999 RMK AO2 SLP155 FU FEW001 FU SCT006 FU OVC020 T00610017 $

KSJC Airport Info (Airnav.com)

KSJC Flight Activity (Flightaware)

Listeners: 0 out of 1388 total

Alaska Airlines Ops: 131.200
American Airlines Ops: 129.200
Atlantic Aviation (San Jose Jet Center): 129.800
Emergency/Guard: 121.500
Horizon Air Ops: 132.000
San Jose Clearance Delivery: 118.000
San Jose Ground: 121.700
Signature Flight Support: 129.050
Southwest Airlines Ops: 464.625
Southwest Airlines Ops: 131.700

Sponsored by LiveATC

KSJC Ground (Archives)
San Jose, California, United States

Feed Status: UP
Listen in your browser - HTML5 player(in browser, HTML5)
Listen right in your browser(in browser, requires Flash)
Click here to listen with your own player(launches your MP3 player)

KSJC 201353Z 00000KT 5SM HZ FEW001 SCT006 OVC020 06/02 A2999 RMK AO2 SLP155 FU FEW001 FU SCT006 FU OVC020 T00610017 $

KSJC Airport Info (Airnav.com)

KSJC Flight Activity (Flightaware)

Listeners: 0 out of 1388 total

San Jose Ground: 121.700

KSJC NORCAL Approach #1 (Archives)
San Jose, California, United States

Feed Status: UP
Listen in your browser - HTML5 player(in browser, HTML5)
Listen right in your browser(in browser, requires Flash)
Click here to listen with your own player(launches your MP3 player)

KSJC 201353Z 00000KT 5SM HZ FEW001 SCT006 OVC020 06/02 A2999 RMK AO2 SLP155 FU FEW001 FU SCT006 FU OVC020 T00610017 $

KSJC Airport Info (Airnav.com)

KSJC Flight Activity (Flightaware)

Listeners: 0 out of 1388 total

Emergency/Guard: 121.500
NORCAL Approach: 135.200
NORCAL Approach "LICKE" SJC Final: 120.100

Sponsored by LiveATC.net

KSJC NORCAL Approach #2 (Archives)
San Jose, California, United States

Feed Status: UP
Listen in your browser - HTML5 player(in browser, HTML5)
Listen right in your browser(in browser, requires Flash)
Click here to listen with your own player(launches your MP3 player)

KSJC 201353Z 00000KT 5SM HZ FEW001 SCT006 OVC020 06/02 A2999 RMK AO2 SLP155 FU FEW001 FU SCT006 FU OVC020 T00610017 $

KSJC Airport Info (Airnav.com)

KSJC Flight Activity (Flightaware)

Listeners: 0 out of 1388 total

NORCAL Approach "LICKE" SJC Final: 120.100
NORCAL Approach "TOGA": 121.300

KSJC NORCAL Departure (Archives)
San Jose, California, United States

Feed Status: UP
Listen in your browser - HTML5 player(in browser, HTML5)
Listen right in your browser(in browser, requires Flash)
Click here to listen with your own player(launches your MP3 player)

KSJC 201353Z 00000KT 5SM HZ FEW001 SCT006 OVC020 06/02 A2999 RMK AO2 SLP155 FU FEW001 FU SCT006 FU OVC020 T00610017 $

KSJC Airport Info (Airnav.com)

KSJC Flight Activity (Flightaware)

Listeners: 0 out of 1388 total

NORCAL Departure: 121.300

Sponsored by LiveATC.net

KSJC Tower #1 (Archives)
San Jose, California, United States

Feed Status: UP
Listen in your browser - HTML5 player(in browser, HTML5)
Listen right in your browser(in browser, requires Flash)
Click here to listen with your own player(launches your MP3 player)

KSJC 201353Z 00000KT 5SM HZ FEW001 SCT006 OVC020 06/02 A2999 RMK AO2 SLP155 FU FEW001 FU SCT006 FU OVC020 T00610017 $

KSJC Airport Info (Airnav.com)

KSJC Flight Activity (Flightaware)

Listeners: 0 out of 1388 total

San Jose Tower: 124.000

KSJC Tower #2 (Archives)
San Jose, California, United States

Feed Status: UP
Listen in your browser - HTML5 player(in browser, HTML5)
Listen right in your browser(in browser, requires Flash)
Click here to listen with your own player(launches your MP3 player)

KSJC 201353Z 00000KT 5SM HZ FEW001 SCT006 OVC020 06/02 A2999 RMK AO2 SLP155 FU FEW001 FU SCT006 FU OVC020 T00610017 $

KSJC Airport Info (Airnav.com)

KSJC Flight Activity (Flightaware)

Listeners: 0 out of 1388 total

San Jose Tower: 124.000
San Jose Tower: 120.700

KSMF Gnd/Twr/Guard (Archives)
Sacramento, California, United States

Feed Status: UP
Listen in your browser - HTML5 player(in browser, HTML5)
Listen right in your browser(in browser, requires Flash)
Click here to listen with your own player(launches your MP3 player)

KSMF 201353Z 05003KT 4SM FU HZ SCT015 02/01 A3001 RMK AO2 SLP162 FU SCT015 T00220006

KSMF Airport Info (Airnav.com)

KSMF Flight Activity (Flightaware)

Listeners: 1 out of 1388 total

Capitol Ground: 121.700
Capitol Tower: 125.700
Emergency/Guard: 121.500

KSMF/KSAC App/Dep (Archives)
Sacramento, California, United States

Feed Status: UP
Listen in your browser - HTML5 player(in browser, HTML5)
Listen right in your browser(in browser, requires Flash)
Click here to listen with your own player(launches your MP3 player)

KSMF 201353Z 05003KT 4SM FU HZ SCT015 02/01 A3001 RMK AO2 SLP162 FU SCT015 T00220006

KSMF Airport Info (Airnav.com)

KSMF Flight Activity (Flightaware)

Listeners: 0 out of 1388 total

NORCAL Approach/Departure: 127.400
NORCAL Approach/Departure: 125.100
NORCAL Approach/Departure: 125.400
NORCAL Approach/Departure: 123.700

KSNA Del/Gnd (Archives)
Santa Ana, California, United States

Feed Status: UP
Listen in your browser - HTML5 player(in browser, HTML5)
Listen right in your browser(in browser, requires Flash)
Click here to listen with your own player(launches your MP3 player)

KSNA 201353Z 03003KT 10SM FEW110 11/06 A2998 RMK AO2 SLP152 T01110061 $

KSNA Airport Info (Airnav.com)

KSNA Flight Activity (Flightaware)

Listeners: 0 out of 1388 total

John Wayne Clearance (IFR): 118.000
John Wayne Clearance (VFR): 121.850
John Wayne Ground (East): 120.800
John Wayne Ground (West): 132.250

KSNA Del/Gnd/Twr/App (Archives)
Santa Ana, California, United States

Feed Status: UP
Listen in your browser - HTML5 player(in browser, HTML5)
Listen right in your browser(in browser, requires Flash)
Click here to listen with your own player(launches your MP3 player)

KSNA 201353Z 03003KT 10SM FEW110 11/06 A2998 RMK AO2 SLP152 T01110061 $

KSNA Airport Info (Airnav.com)

KSNA Flight Activity (Flightaware)

Listeners: 0 out of 1388 total

John Wayne Clearance Delivery: 121.850
John Wayne Ground: 120.800
John Wayne Tower: 119.900
John Wayne Tower: 126.800
SoCal Approach (NE/SW): 128.100
SoCal Approach (NW/NE): 121.300
SoCal Approach (SE): 124.100

KSYR Tower/Approach (Archives)
Syracuse, New York, United States

Feed Status: UP
Listen in your browser - HTML5 player(in browser, HTML5)
Listen right in your browser(in browser, requires Flash)
Click here to listen with your own player(launches your MP3 player)

KSYR 201354Z 00000KT 10SM FEW050 BKN090 OVC110 M01/M03 A2992 RMK AO2 SLP133 T10111028

KSYR Airport Info (Airnav.com)

KSYR Flight Activity (Flightaware)

Listeners: 5 out of 1388 total

Syracuse Approach: 134.275
Syracuse Approach: 126.125
Syracuse Tower: 120.300

KTIK Gnd/Twr/Misc
Oklahoma City, Oklahoma, United States

Feed Status: DOWN
Offline since: 2018-11-09 04:36:03 UTC

KTIK 201356Z AUTO 33004KT 10SM CLR 01/M02 A3037 RMK AO2 SLP300 T00051021

KTIK Airport Info (Airnav.com)

507 ARW: 228.450
AFMC Flight Test: 382.600
PMSV: 261.025
PTD: 134.100
PTD (UHF): 372.200
SFA: 354.125
Tinker Clearance Delivery: 119.700
Tinker Clearance Delivery (UHF): 335.800
Tinker Command Post: 139.950
Tinker Command Post: 141.650
Tinker Command Post: 225.875
Tinker Command Post: 305.600
Tinker Ground: 121.800
Tinker Ground (UHF): 275.800
Tinker Tower: 124.450
Tinker Tower (UHF): 251.050

KTIK Tower
Oklahoma City, Oklahoma, United States

Feed Status: DOWN
Offline since: 2018-11-09 04:36:03 UTC

KTIK 201356Z AUTO 33004KT 10SM CLR 01/M02 A3037 RMK AO2 SLP300 T00051021

KTIK Airport Info (Airnav.com)

Tinker Tower: 124.450
Tinker Tower (UHF): 251.050

KTLH Del/Gnd/Twr/App (Archives)
Tallahassee, Florida, United States

Feed Status: UP
Listen in your browser - HTML5 player(in browser, HTML5)
Listen right in your browser(in browser, requires Flash)
Click here to listen with your own player(launches your MP3 player)

KTLH 201353Z 00000KT 10SM OVC110 14/13 A3015 RMK AO2 SLP207 T01390128

KTLH Airport Info (Airnav.com)

KTLH Flight Activity (Flightaware)

Listeners: 1 out of 1388 total

Tallahassee Approach/Departure: 135.800
Tallahassee Approach/Departure: 128.700
Tallahassee Approach/Departure: 133.850
Tallahassee Clearance Delivery: 126.650
Tallahassee Ground: 121.900
Tallahassee Tower: 118.700

KTLH Feed Status/Updates

KTOL Del/Gnd/Twr/App (Archives)
Toledo, Ohio, United States

Feed Status: UP
Listen in your browser - HTML5 player(in browser, HTML5)
Listen right in your browser(in browser, requires Flash)
Click here to listen with your own player(launches your MP3 player)

KTOL 201352Z 34011KT 10SM BKN012 OVC018 M01/M04 A3014 RMK AO2 SLP213 T10061039 $

KTOL Airport Info (Airnav.com)

KTOL Flight Activity (Flightaware)

Listeners: 0 out of 1388 total

Promedica Air: 136.550
SVMC Life Flight: 123.025
TDZ: 125.600
Toledo Approach (East): 126.100
Toledo Approach (West): 134.350
Toledo Clearance Delivery: 121.750
Toledo Ground: 121.900
Toledo Tower: 118.100

KTUL Del/Gnd/Twr/App (Archives)
Tulsa, Oklahoma, United States

Feed Status: UP
Listen in your browser - HTML5 player(in browser, HTML5)
Listen right in your browser(in browser, requires Flash)
Click here to listen with your own player(launches your MP3 player)

KTUL 201353Z 36003KT 10SM CLR 00/M03 A3039 RMK AO2 SLP294 T00001028

KTUL Airport Info (Airnav.com)

KTUL Flight Activity (Flightaware)

Listeners: 1 out of 1388 total

Emergency/Guard: 121.500
Tulsa Approach (175-354deg): 124.000
Tulsa Approach (355-174deg): 119.100
Tulsa Approach (Final): 132.100
Tulsa Approach/Departure (KRVS): 134.700
Tulsa Clearance: 134.050
Tulsa Ground: 121.900
Tulsa Tower (Rwy 18R/36L): 118.700
Tulsa Tower (Rwys 18L/36R, 08/26): 121.200

KDMA/KTUS Twr/Ops/ZAB (Archives)
Tucson, Arizona, United States

Feed Status: UP
Listen in your browser - HTML5 player(in browser, HTML5)
Listen right in your browser(in browser, requires Flash)
Click here to listen with your own player(launches your MP3 player)

KTUS 201353Z 00000KT 10SM CLR 09/M04 A3006 RMK AO2 SLP157 T00941044

KTUS Airport Info (Airnav.com)

KTUS Flight Activity (Flightaware)

Listeners: 1 out of 1388 total

357FS Ops: 139.725
358FS Ops: 138.500
Albuquerque Center (Sector 47 Silver City/Low/UHF): 327.150
Albuquerque Center (Sector 90 San Simon/High/UHF): 281.500
AWACS: 364.200
BigFoot: 234.800
BigFoot: 271.000
Davis-Monthan AFB: 253.500
Tucson 162FW SOS IOPS: 392.200
Tucson Tower (UHF): 257.800

KTUS Del/Gnd/Twr/App/KDMA (Archives)
Tucson, Arizona, United States

Feed Status: UP
Listen in your browser - HTML5 player(in browser, HTML5)
Listen right in your browser(in browser, requires Flash)
Click here to listen with your own player(launches your MP3 player)

KTUS 201353Z 00000KT 10SM CLR 09/M04 A3006 RMK AO2 SLP157 T00941044

KTUS Airport Info (Airnav.com)

KTUS Flight Activity (Flightaware)

Listeners: 2 out of 1388 total

KDMA Tower: 118.850
Tucson Approach (alt): 128.500
Tucson Approach (East/South): 125.100
Tucson Approach (North): 119.400
Tucson Approach (Practice Areas): 125.900
Tucson Clearance Delivery: 126.650
Tucson Ground: 124.400
Tucson Tower: 118.300
Tucson Tower (alt): 119.000

Feed sponsored by:

KTYS Del/Gnd/Twr/App (Archives)
Knoxville, Tennessee, United States

Feed Status: UP
Listen in your browser - HTML5 player(in browser, HTML5)
Listen right in your browser(in browser, requires Flash)
Click here to listen with your own player(launches your MP3 player)

KTYS 201353Z 28005KT 10SM FEW022 OVC033 08/04 A3015 RMK AO2 SLP208 T00780039

KTYS Airport Info (Airnav.com)

KTYS Flight Activity (Flightaware)

Listeners: 1 out of 1388 total

Knoxville Approach/Departure: 123.900
Knoxville Approach/Departure: 120.650
Knoxville Approach/Departure: 360.800
Knoxville Approach/Departure: 353.600
Knoxville Approach/Departure: 118.000
Knoxville Clearance Delivery: 121.650
Knoxville Ground: 348.600
Knoxville Ground: 121.900
Knoxville Tower: 257.800
Knoxville Tower: 121.200

KBTR/KHZR/L38 Del/Gnd/Twr/App/CTAF (Archives)
Gonzales, Louisiana, United States

Feed Status: UP
Listen in your browser - HTML5 player(in browser, HTML5)
Listen right in your browser(in browser, requires Flash)
Click here to listen with your own player(launches your MP3 player)

KBTR 201353Z 36005KT 10SM BKN010 OVC023 10/09 A3025 RMK AO2 SLP242 T01000089

KBTR Airport Info (Airnav.com)

KBTR Flight Activity (Flightaware)

Listeners: 0 out of 1388 total

Baton Rouge Approach/Departure (East): 126.500
Baton Rouge Approach/Departure (Military): 278.300
Baton Rouge Approach/Departure (West): 120.300
Baton Rouge Clearance Delivery: 119.400
Baton Rouge Ground: 121.900
Baton Rouge Tower (Military): 257.800
Baton Rouge Tower/CTAF: 118.450
Baton Rouge UNICOM: 122.950
Houston Center (App/Dep when Approach closed): 338.250
Houston Center (App/Dep when Approach closed): 126.350
Louisiana Regional L38 CTAF: 123.000
United Airlines: 129.925

Sponsored by:

PANC Del/Gnd/App (Archives)
Anchorage, Alaska, United States

Feed Status: UP
Listen in your browser - HTML5 player(in browser, HTML5)
Listen right in your browser(in browser, requires Flash)
Click here to listen with your own player(launches your MP3 player)

PANC 201409Z 00000KT 1/2SM R07R/1600V3000FT FZFG VV001 M01/M01 A2937 RMK AO2 I1000 T10111011

PANC Airport Info (Airnav.com)

PANC Flight Activity (Flightaware)

Listeners: 0 out of 1388 total

Anchorage Approach/Dep (046-205 deg): 126.400
Anchorage Approach/Dep (206-249 deg): 123.800
Anchorage Approach/Dep (250-330 deg <=1500'): 119.100
Anchorage Approach/Dep (250-330 deg >1500'): 118.600
Anchorage Approach/Dep (331-045 deg <=2500'): 119.100
Anchorage Clearance: 119.400
Anchorage Ground: 121.900

Feed sponsored by: SkyTrek Alaska Flight Training

PANC Del/Gnd/Twr/App (Archives)
Anchorage, Alaska, United States

Feed Status: UP
Listen in your browser - HTML5 player(in browser, HTML5)
Listen right in your browser(in browser, requires Flash)
Click here to listen with your own player(launches your MP3 player)

PANC 201409Z 00000KT 1/2SM R07R/1600V3000FT FZFG VV001 M01/M01 A2937 RMK AO2 I1000 T10111011

PANC Airport Info (Airnav.com)

PANC Flight Activity (Flightaware)

Listeners: 0 out of 1388 total

Anchorage Approach/Dep (046-205 deg): 126.400
Anchorage Approach/Dep (206-249 deg): 123.800
Anchorage Approach/Dep (250-330 deg <=1500'): 119.100
Anchorage Approach/Dep (250-330 deg >1500'): 118.600
Anchorage Approach/Dep (331-045 deg <=2500'): 119.100
Anchorage Clearance: 119.400
Anchorage Ground: 121.900
Anchorage Tower: 118.300

NOTE: Tower on left audio channel, all other channels on right audio channel. Feed sponsored by: SkyTrek Alaska Flight Training

PANC Tower (Archives)
Anchorage, Alaska, United States

Feed Status: UP
Listen in your browser - HTML5 player(in browser, HTML5)
Listen right in your browser(in browser, requires Flash)
Click here to listen with your own player(launches your MP3 player)

PANC 201409Z 00000KT 1/2SM R07R/1600V3000FT FZFG VV001 M01/M01 A2937 RMK AO2 I1000 T10111011

PANC Airport Info (Airnav.com)

PANC Flight Activity (Flightaware)

Listeners: 0 out of 1388 total

Anchorage Tower: 118.300

Feed sponsored by: SkyTrek Alaska Flight Training

PHOG ATIS (Archives)
Kahului, Hawaii, United States

Feed Status: UP
Listen in your browser - HTML5 player(in browser, HTML5)
Listen right in your browser(in browser, requires Flash)
Click here to listen with your own player(launches your MP3 player)

PHOG 201354Z AUTO 03007KT 10SM SCT065 22/19 A3003 RMK AO2 RAB14E22 SLP173 P0000 T02170189 TSNO

PHOG Airport Info (Airnav.com)

PHOG Flight Activity (Flightaware)

Listeners: 0 out of 1388 total

Maui ATIS: 128.600

PHOG Clearance Delivery (Archives)
Kahului, Hawaii, United States

Feed Status: UP
Listen in your browser - HTML5 player(in browser, HTML5)
Listen right in your browser(in browser, requires Flash)
Click here to listen with your own player(launches your MP3 player)

PHOG 201354Z AUTO 03007KT 10SM SCT065 22/19 A3003 RMK AO2 RAB14E22 SLP173 P0000 T02170189 TSNO

PHOG Airport Info (Airnav.com)

PHOG Flight Activity (Flightaware)

Listeners: 0 out of 1388 total

Maui Clearance Delivery: 120.600

PHOG Del/Gnd/Twr/App (Archives)
Kahului, Hawaii, United States

Feed Status: UP
Listen in your browser - HTML5 player(in browser, HTML5)
Listen right in your browser(in browser, requires Flash)
Click here to listen with your own player(launches your MP3 player)

PHOG 201354Z AUTO 03007KT 10SM SCT065 22/19 A3003 RMK AO2 RAB14E22 SLP173 P0000 T02170189 TSNO

PHOG Airport Info (Airnav.com)

PHOG Flight Activity (Flightaware)

Listeners: 0 out of 1388 total

HCF Approach (Maui/North): 120.200
HCF Approach (Maui/South): 119.500
Maui Clearance Delivery: 120.600
Maui Ground: 121.900
Maui Tower: 118.700

Feed sponsored by: Maui Aviators

PHOG Ground (Archives)
Kahului, Hawaii, United States

Feed Status: UP
Listen in your browser - HTML5 player(in browser, HTML5)
Listen right in your browser(in browser, requires Flash)
Click here to listen with your own player(launches your MP3 player)

PHOG 201354Z AUTO 03007KT 10SM SCT065 22/19 A3003 RMK AO2 RAB14E22 SLP173 P0000 T02170189 TSNO

PHOG Airport Info (Airnav.com)

PHOG Flight Activity (Flightaware)

Listeners: 0 out of 1388 total

Maui Ground: 121.900

PHOG HCF App (North) (Archives)
Kahului, Hawaii, United States

Feed Status: UP
Listen in your browser - HTML5 player(in browser, HTML5)
Listen right in your browser(in browser, requires Flash)
Click here to listen with your own player(launches your MP3 player)

PHOG 201354Z AUTO 03007KT 10SM SCT065 22/19 A3003 RMK AO2 RAB14E22 SLP173 P0000 T02170189 TSNO

PHOG Airport Info (Airnav.com)

PHOG Flight Activity (Flightaware)

Listeners: 0 out of 1388 total

HCF Approach (Maui/North): 120.200

PHOG HCF App (South) (Archives)
Kahului, Hawaii, United States

Feed Status: UP
Listen in your browser - HTML5 player(in browser, HTML5)
Listen right in your browser(in browser, requires Flash)
Click here to listen with your own player(launches your MP3 player)

PHOG 201354Z AUTO 03007KT 10SM SCT065 22/19 A3003 RMK AO2 RAB14E22 SLP173 P0000 T02170189 TSNO

PHOG Airport Info (Airnav.com)

PHOG Flight Activity (Flightaware)

Listeners: 0 out of 1388 total

HCF Approach (Maui/South): 119.500

TJSJ Approach/Departure (Archives)
San Juan, Puerto Rico, United States

Feed Status: UP
Listen in your browser - HTML5 player(in browser, HTML5)
Listen right in your browser(in browser, requires Flash)
Click here to listen with your own player(launches your MP3 player)

TJSJ 201356Z 09010KT 10SM FEW032 28/22 A3005 RMK AO2 RAB35E41 SLP174 P0000 T02830217

TJSJ Flight Activity (Flightaware)

Listeners: 1 out of 1388 total

San Juan App/Dep (North/East): 120.900
San Juan Approach/Departure (West/Southwest): 119.400

TJSJ Del/Gnd/Twr (Archives)
San Juan, Puerto Rico, United States

Feed Status: UP
Listen in your browser - HTML5 player(in browser, HTML5)
Listen right in your browser(in browser, requires Flash)
Click here to listen with your own player(launches your MP3 player)

TJSJ 201356Z 09010KT 10SM FEW032 28/22 A3005 RMK AO2 RAB35E41 SLP174 P0000 T02830217

TJSJ Flight Activity (Flightaware)

Listeners: 0 out of 1388 total

San Juan Clearance Delivery: 126.400
San Juan Ground: 121.900
San Juan Tower: 132.050